Wetterdaten: Sonntag, 21.01.2018
Datum Zeit Temp. Aussen Temp. o. S. +5cm Feuchte Auss BlattFeu 1 Luftdruck Regen Sonnenschein Regendauer Solar Windben Empfang
21.01.2018 00:00 2,1 C 1,7 C 1,1 C 97 % 15 lf 1002,6 hPa 0,0 l/m 0 min 2 min 0 W/m 15,8 km/h (3 Bft) 95,74 %
21.01.2018 00:02 2,1 C 1,7 C 1,1 C 97 % 15 lf 1002,7 hPa 0,0 l/m 0 min 0 min 0 W/m 11,3 km/h (2 Bft) 95,00 %
21.01.2018 00:04 2,1 C 1,7 C 1,1 C 97 % 15 lf 1002,8 hPa 0,0 l/m 0 min 0 min 0 W/m 11,3 km/h (2 Bft) 95,65 %
21.01.2018 00:07 2,1 C 1,7 C 1,1 C 97 % 15 lf 1002,8 hPa 0,0 l/m 0 min 0 min 0 W/m 11,3 km/h (2 Bft) 95,65 %
21.01.2018 00:08 2,1 C 1,7 C 1,1 C 97 % 15 lf 1002,8 hPa 0,0 l/m 0 min 1 min 0 W/m 11,3 km/h (2 Bft) 94,23 %
21.01.2018 00:10 2,1 C 1,7 C 1,1 C 97 % 15 lf 1002,9 hPa 0,0 l/m 0 min 2 min 0 W/m 13,5 km/h (3 Bft) 97,14 %
21.01.2018 00:12 2,1 C 1,7 C 1,1 C 97 % 15 lf 1002,9 hPa 0,0 l/m 0 min 0 min 0 W/m 11,3 km/h (2 Bft) 82,98 %
21.01.2018 00:14 2,1 C 2,2 C 1,1 C 97 % 15 lf 1002,9 hPa 0,0 l/m 0 min 0 min 0 W/m 13,5 km/h (3 Bft) 93,62 %
21.01.2018 00:16 2,1 C 2,2 C 1,1 C 97 % 15 lf 1002,9 hPa 0,0 l/m 0 min 0 min 0 W/m 13,5 km/h (3 Bft) 95,65 %
21.01.2018 00:18 2,1 C 2,2 C 1,1 C 97 % 15 lf 1003,0 hPa 0,0 l/m 0 min 2 min 0 W/m 13,5 km/h (3 Bft) 91,49 %
21.01.2018 00:20 2,1 C 2,2 C 1,1 C 97 % 15 lf 1003,0 hPa 0,0 l/m 0 min 2 min 0 W/m 13,5 km/h (3 Bft) 98,31 %
21.01.2018 00:22 2,1 C 2,2 C 1,1 C 97 % 15 lf 1003,1 hPa 0,0 l/m 0 min 0 min 0 W/m 11,3 km/h (2 Bft) 100,00 %
21.01.2018 00:24 2,1 C 2,2 C 1,1 C 97 % 15 lf 1003,2 hPa 0,0 l/m 0 min 0 min 0 W/m 15,8 km/h (3 Bft) 93,62 %
21.01.2018 00:26 2,1 C 2,2 C 1,1 C 97 % 15 lf 1003,3 hPa 0,0 l/m 0 min 0 min 0 W/m 18,0 km/h (3 Bft) 100,00 %
21.01.2018 00:28 2,1 C 2,2 C 1,1 C 97 % 15 lf 1003,3 hPa 0,0 l/m 0 min 2 min 0 W/m 15,8 km/h (3 Bft) 100,00 %
21.01.2018 00:30 2,1 C 2,2 C 1,1 C 97 % 15 lf 1003,3 hPa 0,0 l/m 0 min 0 min 0 W/m 9,0 km/h (2 Bft) 97,87 %
21.01.2018 00:32 2,2 C 2,2 C 1,1 C 97 % 15 lf 1003,3 hPa 0,0 l/m 0 min 0 min 0 W/m 13,5 km/h (3 Bft) 95,74 %
21.01.2018 00:34 2,2 C 2,2 C 1,1 C 97 % 15 lf 1003,4 hPa 0,0 l/m 0 min 0 min 0 W/m 15,8 km/h (3 Bft) 97,87 %
21.01.2018 00:36 2,2 C 2,2 C 1,1 C 97 % 15 lf 1003,5 hPa 0,0 l/m 0 min 0 min 0 W/m 13,5 km/h (3 Bft) 97,87 %
21.01.2018 00:38 2,2 C 2,2 C 1,1 C 97 % 15 lf 1003,6 hPa 0,0 l/m 0 min 0 min 0 W/m 15,8 km/h (3 Bft) 97,87 %
21.01.2018 00:40 2,2 C 2,2 C 1,1 C 97 % 15 lf 1003,7 hPa 0,0 l/m 0 min 0 min 0 W/m 15,8 km/h (3 Bft) 100,00 %
21.01.2018 00:42 2,2 C 2,2 C 1,1 C 97 % 15 lf 1003,8 hPa 0,0 l/m 0 min 0 min 0 W/m 11,3 km/h (2 Bft) 95,74 %
21.01.2018 00:44 2,2 C 2,2 C 1,1 C 97 % 15 lf 1003,8 hPa 0,0 l/m 0 min 0 min 0 W/m 15,8 km/h (3 Bft) 100,00 %
21.01.2018 00:46 2,2 C 2,2 C 1,1 C 97 % 15 lf 1003,9 hPa 0,0 l/m 0 min 0 min 0 W/m 13,5 km/h (3 Bft) 97,87 %
21.01.2018 00:48 2,2 C 2,2 C 1,1 C 97 % 15 lf 1004,0 hPa 0,0 l/m 0 min 0 min 0 W/m 13,5 km/h (3 Bft) 100,00 %
21.01.2018 00:50 2,2 C 2,2 C 1,1 C 97 % 15 lf 1003,9 hPa 0,0 l/m 0 min 0 min 0 W/m 15,8 km/h (3 Bft) 96,55 %
21.01.2018 00:52 2,2 C 2,2 C 1,1 C 97 % 15 lf 1004,0 hPa 0,0 l/m 0 min 0 min 0 W/m 11,3 km/h (2 Bft) 97,14 %
21.01.2018 00:54 2,2 C 2,2 C 1,1 C 97 % 15 lf 1003,9 hPa 0,0 l/m 0 min 0 min 0 W/m 11,3 km/h (2 Bft) 100,00 %
21.01.2018 00:56 2,2 C 2,2 C 1,1 C 97 % 15 lf 1004,0 hPa 0,0 l/m 0 min 0 min 0 W/m 11,3 km/h (2 Bft) 100,00 %
21.01.2018 00:58 2,2 C 2,2 C 1,1 C 97 % 15 lf 1004,0 hPa 0,0 l/m 0 min 0 min 0 W/m 13,5 km/h (3 Bft) 97,87 %
21.01.2018 01:00 2,2 C 2,2 C 1,1 C 97 % 15 lf 1004,1 hPa 0,0 l/m 0 min 0 min 0 W/m 13,5 km/h (3 Bft) 95,74 %
21.01.2018 01:02 2,2 C 2,2 C 1,1 C 97 % 15 lf 1004,2 hPa 0,0 l/m 0 min 0 min 0 W/m 6,8 km/h (2 Bft) 95,74 %
21.01.2018 01:04 2,2 C 2,2 C 1,1 C 97 % 15 lf 1004,1 hPa 0,0 l/m 0 min 0 min 0 W/m 9,0 km/h (2 Bft) 95,65 %
21.01.2018 01:06 2,2 C 2,2 C 1,1 C 97 % 15 lf 1004,2 hPa 0,0 l/m 0 min 0 min 0 W/m 13,5 km/h (3 Bft) 95,74 %
21.01.2018 01:08 2,2 C 2,2 C 1,1 C 97 % 15 lf 1004,2 hPa 0,0 l/m 0 min 0 min 0 W/m 11,3 km/h (2 Bft) 93,62 %
21.01.2018 01:10 2,2 C 2,2 C 1,1 C 97 % 15 lf 1004,2 hPa 0,0 l/m 0 min 0 min 0 W/m 11,3 km/h (2 Bft) 95,74 %
21.01.2018 01:12 2,2 C 2,2 C 1,1 C 97 % 15 lf 1004,4 hPa 0,0 l/m 0 min 0 min 0 W/m 11,3 km/h (2 Bft) 95,74 %
21.01.2018 01:14 2,2 C 2,2 C 1,1 C 97 % 15 lf 1004,3 hPa 0,0 l/m 0 min 0 min 0 W/m 13,5 km/h (3 Bft) 95,74 %
21.01.2018 01:16 2,2 C 2,2 C 1,1 C 97 % 15 lf 1004,4 hPa 0,0 l/m 0 min 0 min 0 W/m 11,3 km/h (2 Bft) 91,30 %
21.01.2018 01:18 2,2 C 2,2 C 1,1 C 97 % 15 lf 1004,4 hPa 0,0 l/m 0 min 0 min 0 W/m 9,0 km/h (2 Bft) 95,74 %
21.01.2018 01:20 2,2 C 2,2 C 1,1 C 97 % 15 lf 1004,5 hPa 0,0 l/m 0 min 0 min 0 W/m 11,3 km/h (2 Bft) 93,22 %
21.01.2018 01:22 2,2 C 2,2 C 1,1 C 97 % 15 lf 1004,5 hPa 0,0 l/m 0 min 2 min 0 W/m 11,3 km/h (2 Bft) 94,29 %
21.01.2018 01:24 2,2 C 2,2 C 1,1 C 97 % 15 lf 1004,5 hPa 0,0 l/m 0 min 0 min 0 W/m 11,3 km/h (2 Bft) 95,74 %
21.01.2018 01:26 2,2 C 2,2 C 1,1 C 97 % 15 lf 1004,6 hPa 0,0 l/m 0 min 2 min 0 W/m 11,3 km/h (2 Bft) 95,65 %
21.01.2018 01:28 2,2 C 2,2 C 1,1 C 97 % 15 lf 1004,6 hPa 0,0 l/m 0 min 2 min 0 W/m 11,3 km/h (2 Bft) 95,74 %
21.01.2018 01:30 2,2 C 2,2 C 1,1 C 97 % 15 lf 1004,6 hPa 0,0 l/m 0 min 2 min 0 W/m 18,0 km/h (3 Bft) 95,74 %
21.01.2018 01:32 2,2 C 2,2 C 1,1 C 97 % 15 lf 1004,7 hPa 0,0 l/m 0 min 2 min 0 W/m 11,3 km/h (2 Bft) 97,87 %
21.01.2018 01:34 2,2 C 2,2 C 1,1 C 97 % 15 lf 1004,7 hPa 0,0 l/m 0 min 2 min 0 W/m 9,0 km/h (2 Bft) 97,87 %
21.01.2018 01:36 2,2 C 2,2 C 1,1 C 97 % 15 lf 1004,7 hPa 0,0 l/m 0 min 2 min 0 W/m 11,3 km/h (2 Bft) 95,74 %
21.01.2018 01:38 2,2 C 2,2 C 1,1 C 97 % 15 lf 1004,7 hPa 0,0 l/m 0 min 2 min 0 W/m 6,8 km/h (2 Bft) 95,65 %
21.01.2018 01:40 2,2 C 2,2 C 1,1 C 97 % 15 lf 1004,8 hPa 0,0 l/m 0 min 2 min 0 W/m 15,8 km/h (3 Bft) 95,74 %
21.01.2018 01:42 2,2 C 2,2 C 1,1 C 97 % 15 lf 1004,8 hPa 0,0 l/m 0 min 2 min 0 W/m 22,5 km/h (4 Bft) 97,87 %
21.01.2018 01:44 2,2 C 2,2 C 1,1 C 97 % 15 lf 1004,9 hPa 0,0 l/m 0 min 2 min 0 W/m 20,3 km/h (4 Bft) 100,00 %
21.01.2018 01:46 2,2 C 2,2 C 1,1 C 97 % 15 lf 1004,9 hPa 0,0 l/m 0 min 2 min 0 W/m 15,8 km/h (3 Bft) 97,87 %
21.01.2018 01:48 2,2 C 2,2 C 1,1 C 97 % 15 lf 1004,9 hPa 0,2 l/m 0 min 2 min 0 W/m 15,8 km/h (3 Bft) 97,87 %
21.01.2018 01:50 2,2 C 2,2 C 1,1 C 97 % 15 lf 1005,0 hPa 0,0 l/m 0 min 2 min 0 W/m 15,8 km/h (3 Bft) 100,00 %
21.01.2018 01:52 2,2 C 2,2 C 1,1 C 97 % 15 lf 1005,1 hPa 0,0 l/m 0 min 2 min 0 W/m 13,5 km/h (3 Bft) 100,00 %
21.01.2018 01:54 2,2 C 2,2 C 1,1 C 97 % 15 lf 1005,2 hPa 0,0 l/m 0 min 2 min 0 W/m 11,3 km/h (2 Bft) 97,87 %
21.01.2018 01:56 2,2 C 2,2 C 1,1 C 97 % 15 lf 1005,1 hPa 0,0 l/m 0 min 2 min 0 W/m 9,0 km/h (2 Bft) 97,87 %
21.01.2018 01:58 2,2 C 2,2 C 1,1 C 97 % 15 lf 1005,2 hPa 0,0 l/m 0 min 2 min 0 W/m 15,8 km/h (3 Bft) 100,00 %
21.01.2018 02:00 2,2 C 2,2 C 1,1 C 97 % 15 lf 1005,2 hPa 0,0 l/m 0 min 2 min 0 W/m 13,5 km/h (3 Bft) 97,87 %
21.01.2018 02:02 2,2 C 2,2 C 1,1 C 97 % 15 lf 1005,2 hPa 0,0 l/m 0 min 2 min 0 W/m 13,5 km/h (3 Bft) 97,83 %
21.01.2018 02:04 2,2 C 2,2 C 1,1 C 97 % 15 lf 1005,5 hPa 0,0 l/m 0 min 2 min 0 W/m 11,3 km/h (2 Bft) 100,00 %
21.01.2018 02:06 2,2 C 2,2 C 1,1 C 97 % 15 lf 1005,6 hPa 0,0 l/m 0 min 2 min 0 W/m 13,5 km/h (3 Bft) 100,00 %
21.01.2018 02:08 2,2 C 2,2 C 1,1 C 97 % 15 lf 1005,6 hPa 0,0 l/m 0 min 2 min 0 W/m 11,3 km/h (2 Bft) 97,87 %
21.01.2018 02:10 2,2 C 2,2 C 1,1 C 97 % 15 lf 1005,6 hPa 0,0 l/m 0 min 2 min 0 W/m 13,5 km/h (3 Bft) 97,87 %
21.01.2018 02:12 2,2 C 2,2 C 1,1 C 97 % 15 lf 1005,6 hPa 0,0 l/m 0 min 0 min 0 W/m 13,5 km/h (3 Bft) 100,00 %
21.01.2018 02:14 2,2 C 2,2 C 1,1 C 97 % 15 lf 1005,7 hPa 0,0 l/m 0 min 0 min 0 W/m 13,5 km/h (3 Bft) 97,83 %
21.01.2018 02:16 2,2 C 2,2 C 1,1 C 97 % 15 lf 1005,7 hPa 0,0 l/m 0 min 2 min 0 W/m 18,0 km/h (3 Bft) 100,00 %
21.01.2018 02:18 2,2 C 1,7 C 1,1 C 97 % 15 lf 1005,8 hPa 0,0 l/m 0 min 2 min 0 W/m 22,5 km/h (4 Bft) 100,00 %
21.01.2018 02:20 2,2 C 1,7 C 1,1 C 97 % 15 lf 1005,8 hPa 0,0 l/m 0 min 2 min 0 W/m 13,5 km/h (3 Bft) 100,00 %
21.01.2018 02:22 2,2 C 1,7 C 1,1 C 97 % 15 lf 1006,0 hPa 0,0 l/m 0 min 0 min 0 W/m 15,8 km/h (3 Bft) 100,00 %
21.01.2018 02:24 2,2 C 1,7 C 1,1 C 97 % 15 lf 1006,0 hPa 0,0 l/m 0 min 0 min 0 W/m 24,8 km/h (4 Bft) 97,87 %
21.01.2018 02:26 2,2 C 2,2 C 1,1 C 97 % 15 lf 1006,1 hPa 0,0 l/m 0 min 0 min 0 W/m 13,5 km/h (3 Bft) 97,83 %
21.01.2018 02:28 2,2 C 2,2 C 1,1 C 97 % 15 lf 1006,1 hPa 0,0 l/m 0 min 0 min 0 W/m 13,5 km/h (3 Bft) 97,87 %
21.01.2018 02:30 2,2 C 2,2 C 1,1 C 97 % 15 lf 1006,0 hPa 0,0 l/m 0 min 2 min 0 W/m 18,0 km/h (3 Bft) 97,87 %
21.01.2018 02:32 2,2 C 2,2 C 1,1 C 97 % 15 lf 1006,2 hPa 0,0 l/m 0 min 0 min 0 W/m 15,8 km/h (3 Bft) 93,62 %
21.01.2018 02:34 2,2 C 2,2 C 1,1 C 98 % 15 lf 1006,2 hPa 0,0 l/m 0 min 0 min 0 W/m 18,0 km/h (3 Bft) 97,87 %
21.01.2018 02:36 2,2 C 2,2 C 1,1 C 98 % 15 lf 1006,3 hPa 0,0 l/m 0 min 2 min 0 W/m 13,5 km/h (3 Bft) 93,48 %
21.01.2018 02:38 2,2 C 2,2 C 1,1 C 98 % 15 lf 1006,3 hPa 0,0 l/m 0 min 2 min 0 W/m 20,3 km/h (4 Bft) 97,87 %
21.01.2018 02:40 2,2 C 2,2 C 1,1 C 98 % 15 lf 1006,4 hPa 0,0 l/m 0 min 2 min 0 W/m 15,8 km/h (3 Bft) 97,87 %
21.01.2018 02:42 2,2 C 2,2 C 1,1 C 98 % 15 lf 1006,3 hPa 0,0 l/m 0 min 2 min 0 W/m 20,3 km/h (4 Bft) 97,87 %
21.01.2018 02:44 2,2 C 2,2 C 1,1 C 98 % 15 lf 1006,4 hPa 0,0 l/m 0 min 2 min 0 W/m 22,5 km/h (4 Bft) 97,87 %
21.01.2018 02:46 2,2 C 2,2 C 1,1 C 98 % 15 lf 1006,4 hPa 0,2 l/m 0 min 2 min 0 W/m 18,0 km/h (3 Bft) 95,74 %
21.01.2018 02:48 2,2 C 2,2 C 1,1 C 98 % 15 lf 1006,5 hPa 0,0 l/m 0 min 2 min 0 W/m 20,3 km/h (4 Bft) 97,83 %
21.01.2018 02:50 2,2 C 2,2 C 1,1 C 98 % 15 lf 1006,5 hPa 0,0 l/m 0 min 2 min 0 W/m 13,5 km/h (3 Bft) 93,62 %
21.01.2018 02:52 2,2 C 2,2 C 1,1 C 98 % 15 lf 1006,5 hPa 0,0 l/m 0 min 2 min 0 W/m 15,8 km/h (3 Bft) 97,87 %
21.01.2018 02:54 2,2 C 2,2 C 1,1 C 98 % 15 lf 1006,6 hPa 0,0 l/m 0 min 2 min 0 W/m 11,3 km/h (2 Bft) 93,62 %
21.01.2018 02:56 2,2 C 2,2 C 1,1 C 98 % 15 lf 1006,6 hPa 0,0 l/m 0 min 2 min 0 W/m 18,0 km/h (3 Bft) 95,74 %
21.01.2018 02:58 2,2 C 2,2 C 1,1 C 98 % 15 lf 1006,7 hPa 0,0 l/m 0 min 2 min 0 W/m 18,0 km/h (3 Bft) 95,74 %
21.01.2018 03:00 2,2 C 1,7 C 1,1 C 98 % 15 lf 1006,7 hPa 0,2 l/m 0 min 2 min 0 W/m 22,5 km/h (4 Bft) 95,65 %
21.01.2018 03:02 2,2 C 2,2 C 1,1 C 98 % 15 lf 1006,7 hPa 0,0 l/m 0 min 2 min 0 W/m 13,5 km/h (3 Bft) 89,36 %
21.01.2018 03:04 2,2 C 2,2 C 1,1 C 98 % 15 lf 1006,7 hPa 0,0 l/m 0 min 2 min 0 W/m 18,0 km/h (3 Bft) 93,62 %
21.01.2018 03:06 2,2 C 2,2 C 1,1 C 98 % 15 lf 1006,8 hPa 0,0 l/m 0 min 2 min 0 W/m 15,8 km/h (3 Bft) 93,62 %
21.01.2018 03:08 2,2 C 2,2 C 1,1 C 98 % 15 lf 1006,8 hPa 0,0 l/m 0 min 2 min 0 W/m 18,0 km/h (3 Bft) 93,62 %
21.01.2018 03:10 2,2 C 1,7 C 1,1 C 98 % 15 lf 1006,8 hPa 0,0 l/m 0 min 2 min 0 W/m 24,8 km/h (4 Bft) 97,87 %
21.01.2018 03:12 2,2 C 1,7 C 1,1 C 98 % 15 lf 1006,8 hPa 0,0 l/m 0 min 2 min 0 W/m 24,8 km/h (4 Bft) 93,48 %
21.01.2018 03:14 2,2 C 1,7 C 1,1 C 98 % 15 lf 1006,8 hPa 0,0 l/m 0 min 0 min 0 W/m 15,8 km/h (3 Bft) 95,74 %
21.01.2018 03:16 2,2 C 1,7 C 1,1 C 98 % 15 lf 1006,9 hPa 0,0 l/m 0 min 0 min 0 W/m 22,5 km/h (4 Bft) 91,49 %
21.01.2018 03:18 2,2 C 1,7 C 1,1 C 98 % 15 lf 1006,9 hPa 0,0 l/m 0 min 0 min 0 W/m 22,5 km/h (4 Bft) 91,49 %
21.01.2018 03:20 2,2 C 1,7 C 1,1 C 98 % 15 lf 1006,9 hPa 0,0 l/m 0 min 0 min 0 W/m 18,0 km/h (3 Bft) 93,62 %
21.01.2018 03:22 2,2 C 1,7 C 1,1 C 98 % 15 lf 1007,0 hPa 0,0 l/m 0 min 0 min 0 W/m 13,5 km/h (3 Bft) 97,87 %
21.01.2018 03:24 2,2 C 1,7 C 1,1 C 98 % 15 lf 1007,1 hPa 0,0 l/m 0 min 0 min 0 W/m 15,8 km/h (3 Bft) 95,65 %
21.01.2018 03:26 2,2 C 1,7 C 1,1 C 98 % 15 lf 1007,1 hPa 0,0 l/m 0 min 0 min 0 W/m 18,0 km/h (3 Bft) 97,87 %
21.01.2018 03:28 2,2 C 1,7 C 1,1 C 98 % 15 lf 1007,1 hPa 0,0 l/m 0 min 0 min 0 W/m 24,8 km/h (4 Bft) 97,87 %
21.01.2018 03:30 2,2 C 1,7 C 1,1 C 98 % 15 lf 1007,2 hPa 0,0 l/m 0 min 0 min 0 W/m 18,0 km/h (3 Bft) 97,87 %
21.01.2018 03:32 2,1 C 1,7 C 1,1 C 98 % 15 lf 1007,4 hPa 0,0 l/m 0 min 0 min 0 W/m 20,3 km/h (4 Bft) 95,74 %
21.01.2018 03:34 2,2 C 1,7 C 1,1 C 98 % 15 lf 1007,3 hPa 0,0 l/m 0 min 0 min 0 W/m 22,5 km/h (4 Bft) 97,87 %
21.01.2018 03:36 2,2 C 1,7 C 1,1 C 98 % 15 lf 1007,4 hPa 0,0 l/m 0 min 2 min 0 W/m 24,8 km/h (4 Bft) 97,83 %
21.01.2018 03:38 2,1 C 1,7 C 1,1 C 98 % 15 lf 1007,4 hPa 0,0 l/m 0 min 0 min 0 W/m 22,5 km/h (4 Bft) 93,62 %
21.01.2018 03:40 2,1 C 1,7 C 1,1 C 98 % 15 lf 1007,4 hPa 0,0 l/m 0 min 0 min 0 W/m 24,8 km/h (4 Bft) 97,87 %
21.01.2018 03:42 2,1 C 1,7 C 1,1 C 98 % 15 lf 1007,4 hPa 0,0 l/m 0 min 0 min 0 W/m 22,5 km/h (4 Bft) 93,62 %
21.01.2018 03:44 2,1 C 1,7 C 1,1 C 98 % 15 lf 1007,5 hPa 0,0 l/m 0 min 0 min 0 W/m 22,5 km/h (4 Bft) 93,62 %
21.01.2018 03:46 2,1 C 1,7 C 1,1 C 98 % 15 lf 1007,5 hPa 0,0 l/m 0 min 0 min 0 W/m 24,8 km/h (4 Bft) 93,48 %
21.01.2018 03:48 2,1 C 1,7 C 0,6 C 98 % 15 lf 1007,6 hPa 0,0 l/m 0 min 0 min 0 W/m 24,8 km/h (4 Bft) 91,49 %
21.01.2018 03:50 2,1 C 1,7 C 0,6 C 98 % 15 lf 1007,7 hPa 0,0 l/m 0 min 0 min 0 W/m 20,3 km/h (4 Bft) 96,61 %
21.01.2018 03:52 2,1 C 1,7 C 0,6 C 98 % 15 lf 1007,7 hPa 0,0 l/m 0 min 0 min 0 W/m 18,0 km/h (3 Bft) 91,43 %
21.01.2018 03:54 2,1 C 1,7 C 0,6 C 98 % 15 lf 1007,7 hPa 0,0 l/m 0 min 0 min 0 W/m 18,0 km/h (3 Bft) 95,74 %
21.01.2018 03:56 2,1 C 1,7 C 0,6 C 98 % 15 lf 1007,7 hPa 0,0 l/m 0 min 0 min 0 W/m 22,5 km/h (4 Bft) 95,74 %
21.01.2018 03:58 2,1 C 1,7 C 0,6 C 98 % 15 lf 1007,7 hPa 0,0 l/m 0 min 0 min 0 W/m 24,8 km/h (4 Bft) 95,65 %
21.01.2018 04:00 2,1 C 1,7 C 0,6 C 98 % 15 lf 1007,8 hPa 0,0 l/m 0 min 0 min 0 W/m 24,8 km/h (4 Bft) 95,74 %
21.01.2018 04:02 2,0 C 1,7 C 0,6 C 98 % 15 lf 1007,9 hPa 0,0 l/m 0 min 0 min 0 W/m 15,8 km/h (3 Bft) 100,00 %
21.01.2018 04:04 2,0 C 1,7 C 0,6 C 98 % 15 lf 1007,9 hPa 0,0 l/m 0 min 0 min 0 W/m 20,3 km/h (4 Bft) 97,87 %
21.01.2018 04:06 2,0 C 1,7 C 0,6 C 98 % 15 lf 1007,9 hPa 0,0 l/m 0 min 0 min 0 W/m 15,8 km/h (3 Bft) 97,87 %
21.01.2018 04:08 2,0 C 1,7 C 0,6 C 98 % 15 lf 1007,9 hPa 0,0 l/m 0 min 0 min 0 W/m 18,0 km/h (3 Bft) 97,87 %
21.01.2018 04:10 2,0 C 1,7 C 0,6 C 98 % 15 lf 1007,9 hPa 0,0 l/m 0 min 0 min 0 W/m 15,8 km/h (3 Bft) 95,65 %
21.01.2018 04:12 2,0 C 1,7 C 0,6 C 98 % 15 lf 1007,9 hPa 0,0 l/m 0 min 0 min 0 W/m 11,3 km/h (2 Bft) 95,74 %
21.01.2018 04:14 2,0 C 1,7 C 0,6 C 98 % 15 lf 1008,0 hPa 0,0 l/m 0 min 0 min 0 W/m 13,5 km/h (3 Bft) 95,74 %
21.01.2018 04:16 2,0 C 1,7 C 0,6 C 98 % 15 lf 1008,1 hPa 0,0 l/m 0 min 0 min 0 W/m 15,8 km/h (3 Bft) 93,62 %
21.01.2018 04:18 2,0 C 1,7 C 0,6 C 98 % 15 lf 1008,1 hPa 0,0 l/m 0 min 0 min 0 W/m 13,5 km/h (3 Bft) 95,74 %
21.01.2018 04:20 2,0 C 1,7 C 0,6 C 98 % 15 lf 1008,2 hPa 0,0 l/m 0 min 0 min 0 W/m 13,5 km/h (3 Bft) 95,74 %
21.01.2018 04:22 2,0 C 1,7 C 0,6 C 98 % 15 lf 1008,2 hPa 0,0 l/m 0 min 0 min 0 W/m 15,8 km/h (3 Bft) 97,83 %
21.01.2018 04:24 2,0 C 1,7 C 0,6 C 98 % 15 lf 1008,2 hPa 0,0 l/m 0 min 0 min 0 W/m 13,5 km/h (3 Bft) 100,00 %
21.01.2018 04:26 2,0 C 1,7 C 0,6 C 98 % 15 lf 1008,2 hPa 0,0 l/m 0 min 0 min 0 W/m 18,0 km/h (3 Bft) 97,87 %
21.01.2018 04:28 2,0 C 1,7 C 0,6 C 98 % 15 lf 1008,3 hPa 0,0 l/m 0 min 0 min 0 W/m 15,8 km/h (3 Bft) 97,87 %
21.01.2018 04:30 1,9 C 1,7 C 0,6 C 98 % 15 lf 1008,3 hPa 0,0 l/m 0 min 0 min 0 W/m 13,5 km/h (3 Bft) 97,87 %
21.01.2018 04:32 1,9 C 1,7 C 0,6 C 98 % 15 lf 1008,3 hPa 0,0 l/m 0 min 0 min 0 W/m 13,5 km/h (3 Bft) 100,00 %
21.01.2018 04:34 1,9 C 1,7 C 0,6 C 98 % 15 lf 1008,3 hPa 0,0 l/m 0 min 0 min 0 W/m 15,8 km/h (3 Bft) 97,83 %
21.01.2018 04:36 1,9 C 1,7 C 0,6 C 98 % 15 lf 1008,4 hPa 0,0 l/m 0 min 0 min 0 W/m 20,3 km/h (4 Bft) 95,74 %
21.01.2018 04:38 1,9 C 1,7 C 0,6 C 98 % 15 lf 1008,4 hPa 0,0 l/m 0 min 0 min 0 W/m 20,3 km/h (4 Bft) 100,00 %
21.01.2018 04:40 1,9 C 1,7 C 0,6 C 98 % 15 lf 1008,4 hPa 0,0 l/m 0 min 0 min 0 W/m 18,0 km/h (3 Bft) 100,00 %
21.01.2018 04:42 1,9 C 1,7 C 0,6 C 98 % 15 lf 1008,5 hPa 0,0 l/m 0 min 0 min 0 W/m 15,8 km/h (3 Bft) 100,00 %
21.01.2018 04:44 1,9 C 1,7 C 0,6 C 98 % 15 lf 1008,5 hPa 0,0 l/m 0 min 0 min 0 W/m 18,0 km/h (3 Bft) 97,83 %
21.01.2018 04:46 1,9 C 1,7 C 0,6 C 98 % 15 lf 1008,5 hPa 0,0 l/m 0 min 0 min 0 W/m 18,0 km/h (3 Bft) 91,49 %
21.01.2018 04:48 1,9 C 1,7 C 0,6 C 98 % 15 lf 1008,5 hPa 0,0 l/m 0 min 0 min 0 W/m 15,8 km/h (3 Bft) 97,87 %
21.01.2018 04:50 1,9 C 1,1 C 0,6 C 98 % 15 lf 1008,5 hPa 0,0 l/m 0 min 0 min 0 W/m 13,5 km/h (3 Bft) 97,87 %
21.01.2018 04:52 1,9 C 1,1 C 0,0 C 98 % 15 lf 1008,6 hPa 0,0 l/m 0 min 0 min 0 W/m 13,5 km/h (3 Bft) 93,62 %
21.01.2018 04:54 1,9 C 1,1 C 0,0 C 98 % 15 lf 1008,6 hPa 0,0 l/m 0 min 0 min 0 W/m 15,8 km/h (3 Bft) 97,87 %
21.01.2018 04:56 1,9 C 1,1 C 0,0 C 98 % 15 lf 1008,6 hPa 0,0 l/m 0 min 0 min 0 W/m 9,0 km/h (2 Bft) 97,83 %
21.01.2018 04:58 1,8 C 1,1 C 0,0 C 98 % 15 lf 1008,7 hPa 0,0 l/m 0 min 0 min 0 W/m 15,8 km/h (3 Bft) 95,74 %
21.01.2018 05:00 1,8 C 1,1 C 0,0 C 98 % 15 lf 1008,7 hPa 0,0 l/m 0 min 0 min 0 W/m 18,0 km/h (3 Bft) 93,62 %
21.01.2018 05:02 1,8 C 1,1 C 0,0 C 98 % 15 lf 1008,8 hPa 0,0 l/m 0 min 0 min 0 W/m 15,8 km/h (3 Bft) 97,87 %
21.01.2018 05:04 1,8 C 1,1 C 0,0 C 98 % 15 lf 1008,8 hPa 0,0 l/m 0 min 0 min 0 W/m 22,5 km/h (4 Bft) 97,87 %
21.01.2018 05:06 1,7 C 1,1 C 0,0 C 98 % 15 lf 1008,9 hPa 0,0 l/m 0 min 0 min 0 W/m 20,3 km/h (4 Bft) 97,87 %
21.01.2018 05:08 1,7 C 1,1 C 0,0 C 98 % 15 lf 1008,9 hPa 0,0 l/m 0 min 0 min 0 W/m 18,0 km/h (3 Bft) 97,83 %
21.01.2018 05:10 1,7 C 1,1 C 0,0 C 98 % 15 lf 1008,9 hPa 0,0 l/m 0 min 0 min 0 W/m 18,0 km/h (3 Bft) 95,74 %
21.01.2018 05:12 1,7 C 1,1 C 0,0 C 98 % 15 lf 1009,0 hPa 0,0 l/m 0 min 0 min 0 W/m 15,8 km/h (3 Bft) 97,87 %
21.01.2018 05:14 1,7 C 1,1 C 0,0 C 98 % 15 lf 1009,0 hPa 0,0 l/m 0 min 0 min 0 W/m 11,3 km/h (2 Bft) 100,00 %
21.01.2018 05:16 1,7 C 1,1 C 0,0 C 97 % 15 lf 1009,0 hPa 0,0 l/m 0 min 0 min 0 W/m 15,8 km/h (3 Bft) 97,87 %
21.01.2018 05:18 1,7 C 1,1 C 0,0 C 97 % 15 lf 1009,0 hPa 0,0 l/m 0 min 0 min 0 W/m 24,8 km/h (4 Bft) 95,74 %
21.01.2018 05:20 1,7 C 1,1 C 0,0 C 97 % 15 lf 1009,1 hPa 0,0 l/m 0 min 0 min 0 W/m 13,5 km/h (3 Bft) 97,83 %
21.01.2018 05:22 1,6 C 1,1 C 0,0 C 97 % 15 lf 1009,2 hPa 0,0 l/m 0 min 0 min 0 W/m 18,0 km/h (3 Bft) 97,87 %
21.01.2018 05:24 1,6 C 1,1 C 0,0 C 97 % 15 lf 1009,2 hPa 0,0 l/m 0 min 0 min 0 W/m 13,5 km/h (3 Bft) 97,87 %
21.01.2018 05:26 1,6 C 1,1 C 0,0 C 97 % 15 lf 1009,3 hPa 0,0 l/m 0 min 0 min 0 W/m 20,3 km/h (4 Bft) 95,74 %
21.01.2018 05:28 1,6 C 1,1 C 0,0 C 97 % 15 lf 1009,3 hPa 0,0 l/m 0 min 0 min 0 W/m 15,8 km/h (3 Bft) 93,62 %
21.01.2018 05:30 1,6 C 1,1 C 0,0 C 97 % 15 lf 1009,4 hPa 0,0 l/m 0 min 0 min 0 W/m 13,5 km/h (3 Bft) 95,74 %
21.01.2018 05:32 1,6 C 0,6 C -0,6 C 97 % 15 lf 1009,4 hPa 0,0 l/m 0 min 0 min 0 W/m 11,3 km/h (2 Bft) 97,83 %
21.01.2018 05:34 1,6 C 0,6 C -0,6 C 97 % 15 lf 1009,4 hPa 0,0 l/m 0 min 0 min 0 W/m 15,8 km/h (3 Bft) 95,74 %
21.01.2018 05:35 1,6 C 0,6 C -0,6 C 97 % 15 lf 1009,5 hPa 0,0 l/m 0 min 0 min 0 W/m 18,0 km/h (3 Bft) 98,25 %
21.01.2018 05:40 1,5 C 0,6 C -0,6 C 97 % 15 lf 1009,6 hPa 0,0 l/m 0 min 0 min 0 W/m 11,3 km/h (2 Bft) 100,00 %
21.01.2018 05:42 1,5 C 0,6 C -0,6 C 98 % 15 lf 1009,5 hPa 0,0 l/m 0 min 0 min 0 W/m 9,0 km/h (2 Bft) 100,00 %
21.01.2018 05:44 1,4 C 0,6 C -0,6 C 98 % 15 lf 1009,6 hPa 0,0 l/m 0 min 0 min 0 W/m 11,3 km/h (2 Bft) 95,74 %
21.01.2018 05:46 1,4 C 0,6 C -0,6 C 98 % 15 lf 1009,7 hPa 0,0 l/m 0 min 0 min 0 W/m 11,3 km/h (2 Bft) 97,83 %
21.01.2018 05:48 1,4 C 0,6 C -0,6 C 98 % 15 lf 1009,7 hPa 0,0 l/m 0 min 0 min 0 W/m 20,3 km/h (4 Bft) 95,74 %
21.01.2018 05:50 1,3 C 0,6 C -0,6 C 98 % 15 lf 1009,7 hPa 0,0 l/m 0 min 0 min 0 W/m 11,3 km/h (2 Bft) 96,61 %
21.01.2018 05:52 1,3 C 0,6 C -0,6 C 98 % 15 lf 1009,7 hPa 0,0 l/m 0 min 0 min 0 W/m 13,5 km/h (3 Bft) 97,14 %
21.01.2018 05:54 1,3 C 0,6 C -0,6 C 97 % 15 lf 1009,8 hPa 0,0 l/m 0 min 0 min 0 W/m 9,0 km/h (2 Bft) 97,87 %
21.01.2018 05:56 1,3 C 0,6 C -0,6 C 97 % 15 lf 1009,9 hPa 0,0 l/m 0 min 0 min 0 W/m 11,3 km/h (2 Bft) 97,87 %
21.01.2018 05:58 1,3 C 0,6 C -0,6 C 97 % 15 lf 1009,9 hPa 0,0 l/m 0 min 0 min 0 W/m 9,0 km/h (2 Bft) 93,48 %
21.01.2018 06:00 1,3 C 0,6 C -0,6 C 97 % 15 lf 1010,0 hPa 0,0 l/m 0 min 0 min 0 W/m 13,5 km/h (3 Bft) 97,87 %
21.01.2018 06:02 1,2 C 0,6 C -0,6 C 97 % 15 lf 1010,0 hPa 0,0 l/m 0 min 0 min 0 W/m 13,5 km/h (3 Bft) 95,74 %
21.01.2018 06:04 1,2 C 0,6 C -0,6 C 97 % 15 lf 1010,1 hPa 0,0 l/m 0 min 0 min 0 W/m 11,3 km/h (2 Bft) 97,87 %
21.01.2018 06:06 1,2 C 0,6 C -0,6 C 97 % 15 lf 1010,1 hPa 0,0 l/m 0 min 0 min 0 W/m 11,3 km/h (2 Bft) 97,87 %
21.01.2018 06:08 1,2 C 0,6 C -0,6 C 97 % 15 lf 1010,2 hPa 0,0 l/m 0 min 0 min 0 W/m 15,8 km/h (3 Bft) 100,00 %
21.01.2018 06:10 1,2 C 0,6 C -0,6 C 97 % 15 lf 1010,2 hPa 0,0 l/m 0 min 0 min 0 W/m 11,3 km/h (2 Bft) 97,87 %
21.01.2018 06:12 1,2 C 0,6 C -0,6 C 97 % 15 lf 1010,2 hPa 0,0 l/m 0 min 0 min 0 W/m 13,5 km/h (3 Bft) 100,00 %
21.01.2018 06:14 1,2 C 0,6 C -0,6 C 97 % 15 lf 1010,3 hPa 0,0 l/m 0 min 0 min 0 W/m 13,5 km/h (3 Bft) 97,87 %
21.01.2018 06:16 1,1 C 0,0 C -0,6 C 97 % 15 lf 1010,3 hPa 0,0 l/m 0 min 0 min 0 W/m 11,3 km/h (2 Bft) 100,00 %
21.01.2018 06:18 1,1 C 0,0 C -0,6 C 98 % 15 lf 1010,3 hPa 0,0 l/m 0 min 0 min 0 W/m 15,8 km/h (3 Bft) 97,87 %
21.01.2018 06:20 1,1 C 0,0 C -0,6 C 98 % 15 lf 1010,3 hPa 0,0 l/m 0 min 0 min 0 W/m 13,5 km/h (3 Bft) 96,55 %
21.01.2018 06:22 1,1 C 0,0 C -1,1 C 98 % 15 lf 1010,4 hPa 0,0 l/m 0 min 0 min 0 W/m 9,0 km/h (2 Bft) 91,43 %
21.01.2018 06:24 1,0 C 0,0 C -1,1 C 98 % 15 lf 1010,3 hPa 0,0 l/m 0 min 0 min 0 W/m 13,5 km/h (3 Bft) 97,87 %
21.01.2018 06:26 1,0 C 0,0 C -1,1 C 98 % 15 lf 1010,3 hPa 0,0 l/m 0 min 0 min 0 W/m 11,3 km/h (2 Bft) 95,74 %
21.01.2018 06:28 0,9 C 0,0 C -1,1 C 98 % 15 lf 1010,3 hPa 0,0 l/m 0 min 0 min 0 W/m 13,5 km/h (3 Bft) 93,62 %
21.01.2018 06:30 0,9 C 0,0 C -1,1 C 98 % 15 lf 1010,3 hPa 0,0 l/m 0 min 0 min 0 W/m 22,5 km/h (4 Bft) 95,74 %
21.01.2018 06:32 0,9 C 0,0 C -1,1 C 97 % 15 lf 1010,3 hPa 0,0 l/m 0 min 0 min 0 W/m 15,8 km/h (3 Bft) 95,65 %
21.01.2018 06:34 0,9 C 0,0 C -1,1 C 97 % 15 lf 1010,4 hPa 0,0 l/m 0 min 0 min 0 W/m 13,5 km/h (3 Bft) 95,74 %
21.01.2018 06:36 0,9 C 0,0 C -1,1 C 97 % 15 lf 1010,4 hPa 0,0 l/m 0 min 0 min 0 W/m 15,8 km/h (3 Bft) 93,62 %
21.01.2018 06:38 0,9 C 0,0 C -1,1 C 97 % 15 lf 1010,4 hPa 0,0 l/m 0 min 0 min 0 W/m 13,5 km/h (3 Bft) 91,49 %
21.01.2018 06:40 0,8 C 0,0 C -1,1 C 97 % 15 lf 1010,4 hPa 0,0 l/m 0 min 0 min 0 W/m 11,3 km/h (2 Bft) 95,74 %
21.01.2018 06:42 0,8 C 0,0 C -1,1 C 97 % 15 lf 1010,5 hPa 0,0 l/m 0 min 0 min 0 W/m 6,8 km/h (2 Bft) 96,00 %
21.01.2018 06:44 0,8 C 0,0 C -1,1 C 97 % 15 lf 1010,4 hPa 0,0 l/m 0 min 0 min 0 W/m 13,5 km/h (3 Bft) 95,65 %
21.01.2018 06:46 0,8 C 0,0 C -1,7 C 97 % 15 lf 1010,5 hPa 0,0 l/m 0 min 0 min 0 W/m 11,3 km/h (2 Bft) 91,49 %
21.01.2018 06:48 0,7 C 0,0 C -1,7 C 97 % 15 lf 1010,5 hPa 0,0 l/m 0 min 0 min 0 W/m 13,5 km/h (3 Bft) 95,74 %
21.01.2018 06:50 0,7 C 0,0 C -1,1 C 97 % 15 lf 1010,6 hPa 0,0 l/m 0 min 0 min 0 W/m 15,8 km/h (3 Bft) 94,92 %
21.01.2018 06:52 0,7 C 0,0 C -1,1 C 97 % 15 lf 1010,6 hPa 0,0 l/m 0 min 0 min 0 W/m 11,3 km/h (2 Bft) 97,14 %
21.01.2018 06:54 0,7 C 0,0 C -1,1 C 97 % 15 lf 1010,6 hPa 0,0 l/m 0 min 0 min 0 W/m 9,0 km/h (2 Bft) 95,74 %
21.01.2018 06:56 0,6 C 0,0 C -1,1 C 97 % 15 lf 1010,6 hPa 0,0 l/m 0 min 0 min 0 W/m 9,0 km/h (2 Bft) 89,13 %
21.01.2018 06:58 0,6 C 0,0 C -1,1 C 97 % 15 lf 1010,6 hPa 0,0 l/m 0 min 0 min 0 W/m 9,0 km/h (2 Bft) 95,74 %
21.01.2018 07:00 0,6 C 0,0 C -1,7 C 97 % 15 lf 1010,6 hPa 0,0 l/m 0 min 0 min 0 W/m 11,3 km/h (2 Bft) 93,62 %
21.01.2018 07:02 0,6 C 0,0 C -1,7 C 97 % 15 lf 1010,8 hPa 0,0 l/m 0 min 0 min 0 W/m 11,3 km/h (2 Bft) 95,74 %
21.01.2018 07:04 0,5 C 0,0 C -1,1 C 97 % 15 lf 1010,9 hPa 0,0 l/m 0 min 0 min 0 W/m 15,8 km/h (3 Bft) 100,00 %
21.01.2018 07:06 0,5 C 0,0 C -1,1 C 97 % 15 lf 1010,9 hPa 0,0 l/m 0 min 0 min 0 W/m 11,3 km/h (2 Bft) 100,00 %
21.01.2018 07:08 0,5 C 0,0 C -1,1 C 97 % 15 lf 1010,9 hPa 0,0 l/m 0 min 0 min 0 W/m 15,8 km/h (3 Bft) 97,87 %
21.01.2018 07:10 0,5 C 0,0 C -1,1 C 97 % 15 lf 1010,9 hPa 0,0 l/m 0 min 0 min 0 W/m 13,5 km/h (3 Bft) 100,00 %
21.01.2018 07:12 0,5 C 0,0 C -0,6 C 97 % 15 lf 1010,9 hPa 0,0 l/m 0 min 0 min 0 W/m 13,5 km/h (3 Bft) 97,87 %
21.01.2018 07:14 0,5 C 0,0 C -0,6 C 97 % 15 lf 1011,1 hPa 0,0 l/m 0 min 0 min 0 W/m 15,8 km/h (3 Bft) 100,00 %
21.01.2018 07:16 0,5 C 0,6 C -0,6 C 97 % 15 lf 1011,1 hPa 0,0 l/m 0 min 0 min 0 W/m 18,0 km/h (3 Bft) 100,00 %
21.01.2018 07:18 0,6 C 0,6 C -0,6 C 97 % 15 lf 1011,1 hPa 0,0 l/m 0 min 0 min 0 W/m 13,5 km/h (3 Bft) 97,83 %
21.01.2018 07:20 0,6 C 0,6 C -0,6 C 97 % 15 lf 1011,2 hPa 0,0 l/m 0 min 0 min 0 W/m 20,3 km/h (4 Bft) 100,00 %
21.01.2018 07:22 0,6 C 0,6 C -0,6 C 97 % 15 lf 1011,2 hPa 0,0 l/m 0 min 0 min 0 W/m 13,5 km/h (3 Bft) 97,87 %
21.01.2018 07:24 0,7 C 0,6 C -0,6 C 97 % 15 lf 1011,2 hPa 0,0 l/m 0 min 0 min 0 W/m 11,3 km/h (2 Bft) 97,87 %
21.01.2018 07:26 0,7 C 0,6 C -0,6 C 97 % 15 lf 1011,3 hPa 0,0 l/m 0 min 0 min 0 W/m 11,3 km/h (2 Bft) 97,87 %
21.01.2018 07:28 0,7 C 0,0 C -1,1 C 97 % 15 lf 1011,3 hPa 0,0 l/m 0 min 0 min 0 W/m 18,0 km/h (3 Bft) 97,87 %
21.01.2018 07:30 0,7 C 0,0 C -1,1 C 97 % 15 lf 1011,3 hPa 0,0 l/m 0 min 0 min 0 W/m 9,0 km/h (2 Bft) 95,65 %
21.01.2018 07:32 0,7 C 0,0 C -1,1 C 97 % 15 lf 1011,4 hPa 0,0 l/m 0 min 0 min 0 W/m 13,5 km/h (3 Bft) 97,87 %
21.01.2018 07:34 0,7 C 0,0 C -1,1 C 97 % 15 lf 1011,5 hPa 0,0 l/m 0 min 0 min 0 W/m 13,5 km/h (3 Bft) 97,87 %
21.01.2018 07:36 0,7 C 0,0 C -1,1 C 97 % 15 lf 1011,5 hPa 0,0 l/m 0 min 0 min 0 W/m 6,8 km/h (2 Bft) 95,74 %
21.01.2018 07:38 0,7 C 0,0 C -1,7 C 97 % 15 lf 1011,6 hPa 0,0 l/m 0 min 0 min 0 W/m 11,3 km/h (2 Bft) 97,87 %
21.01.2018 07:40 0,6 C 0,0 C -1,7 C 97 % 15 lf 1011,6 hPa 0,0 l/m 0 min 0 min 0 W/m 11,3 km/h (2 Bft) 97,87 %
21.01.2018 07:42 0,6 C 0,0 C -1,7 C 97 % 15 lf 1011,7 hPa 0,0 l/m 0 min 0 min 0 W/m 11,3 km/h (2 Bft) 95,65 %
21.01.2018 07:44 0,6 C -0,6 C -1,7 C 97 % 15 lf 1011,7 hPa 0,0 l/m 0 min 0 min 0 W/m 9,0 km/h (2 Bft) 95,74 %
21.01.2018 07:46 0,6 C -0,6 C -1,7 C 97 % 15 lf 1011,8 hPa 0,0 l/m 0 min 0 min 0 W/m 15,8 km/h (3 Bft) 93,62 %
21.01.2018 07:48 0,5 C -0,6 C -1,7 C 97 % 15 lf 1011,8 hPa 0,0 l/m 0 min 0 min 0 W/m 11,3 km/h (2 Bft) 95,74 %
21.01.2018 07:50 0,5 C 0,0 C -1,1 C 97 % 15 lf 1011,9 hPa 0,0 l/m 0 min 0 min 0 W/m 15,8 km/h (3 Bft) 97,87 %
21.01.2018 07:52 0,5 C 0,0 C -1,7 C 97 % 15 lf 1011,9 hPa 0,0 l/m 0 min 0 min 0 W/m 9,0 km/h (2 Bft) 97,83 %
21.01.2018 07:54 0,5 C -0,6 C -1,7 C 97 % 15 lf 1011,9 hPa 0,0 l/m 0 min 0 min 0 W/m 9,0 km/h (2 Bft) 95,74 %
21.01.2018 07:56 0,5 C 0,0 C -1,7 C 97 % 15 lf 1011,9 hPa 0,0 l/m 0 min 0 min 0 W/m 9,0 km/h (2 Bft) 93,62 %
21.01.2018 07:58 0,5 C 0,0 C -1,7 C 97 % 15 lf 1012,0 hPa 0,0 l/m 0 min 0 min 0 W/m 13,5 km/h (3 Bft) 97,87 %
21.01.2018 08:00 0,5 C 0,0 C -1,7 C 97 % 15 lf 1012,0 hPa 0,0 l/m 0 min 0 min 0 W/m 15,8 km/h (3 Bft) 97,87 %
21.01.2018 08:02 0,5 C 0,0 C -1,1 C 97 % 15 lf 1012,0 hPa 0,0 l/m 0 min 0 min 0 W/m 13,5 km/h (3 Bft) 97,87 %
21.01.2018 08:04 0,5 C 0,0 C -1,1 C 97 % 15 lf 1012,1 hPa 0,0 l/m 0 min 0 min 0 W/m 13,5 km/h (3 Bft) 97,87 %
21.01.2018 08:06 0,5 C 0,0 C -1,7 C 97 % 15 lf 1012,2 hPa 0,0 l/m 0 min 0 min 0 W/m 11,3 km/h (2 Bft) 97,83 %
21.01.2018 08:08 0,5 C 0,0 C -1,1 C 97 % 15 lf 1012,2 hPa 0,0 l/m 0 min 0 min 0 W/m 11,3 km/h (2 Bft) 97,87 %
21.01.2018 08:10 0,5 C 0,0 C -1,1 C 97 % 15 lf 1012,3 hPa 0,0 l/m 0 min 0 min 0 W/m 11,3 km/h (2 Bft) 97,87 %
21.01.2018 08:12 0,5 C 0,0 C -1,1 C 97 % 15 lf 1012,2 hPa 0,0 l/m 0 min 0 min 0 W/m 20,3 km/h (4 Bft) 95,74 %
21.01.2018 08:14 0,5 C 0,0 C -0,6 C 97 % 15 lf 1012,3 hPa 0,0 l/m 0 min 0 min 0 W/m 18,0 km/h (3 Bft) 95,74 %
21.01.2018 08:16 0,5 C 0,0 C -0,6 C 97 % 15 lf 1012,4 hPa 0,0 l/m 0 min 0 min 0 W/m 11,3 km/h (2 Bft) 93,48 %
21.01.2018 08:18 0,5 C 0,0 C -0,6 C 97 % 15 lf 1012,4 hPa 0,0 l/m 0 min 0 min 0 W/m 15,8 km/h (3 Bft) 93,62 %
21.01.2018 08:20 0,5 C 0,0 C -0,6 C 97 % 15 lf 1012,4 hPa 0,0 l/m 0 min 0 min 0 W/m 11,3 km/h (2 Bft) 89,36 %
21.01.2018 08:22 0,5 C 0,0 C -1,1 C 97 % 15 lf 1012,4 hPa 0,0 l/m 0 min 0 min 1 W/m 11,3 km/h (2 Bft) 95,74 %
21.01.2018 08:24 0,5 C 0,0 C -1,1 C 97 % 15 lf 1012,5 hPa 0,0 l/m 0 min 0 min 5 W/m 11,3 km/h (2 Bft) 93,62 %
21.01.2018 08:26 0,5 C 0,0 C -0,6 C 97 % 15 lf 1012,5 hPa 0,0 l/m 0 min 0 min 5 W/m 11,3 km/h (2 Bft) 91,49 %
21.01.2018 08:28 0,5 C 0,0 C -0,6 C 97 % 15 lf 1012,6 hPa 0,0 l/m 0 min 0 min 5 W/m 9,0 km/h (2 Bft) 93,48 %
21.01.2018 08:30 0,5 C 0,0 C -0,6 C 97 % 15 lf 1012,6 hPa 0,0 l/m 0 min 0 min 5 W/m 6,8 km/h (2 Bft) 91,49 %
21.01.2018 08:32 0,5 C 0,0 C -0,6 C 97 % 15 lf 1012,6 hPa 0,0 l/m 0 min 0 min 6 W/m 9,0 km/h (2 Bft) 91,49 %
21.01.2018 08:34 0,5 C 0,0 C -0,6 C 97 % 15 lf 1012,7 hPa 0,0 l/m 0 min 0 min 8 W/m 9,0 km/h (2 Bft) 95,74 %
21.01.2018 08:36 0,5 C 0,6 C -0,6 C 97 % 15 lf 1012,7 hPa 0,0 l/m 0 min 0 min 9 W/m 11,3 km/h (2 Bft) 93,62 %
21.01.2018 08:38 0,5 C 0,6 C -0,6 C 97 % 15 lf 1012,7 hPa 0,0 l/m 0 min 0 min 11 W/m 11,3 km/h (2 Bft) 95,74 %
21.01.2018 08:40 0,5 C 0,6 C -0,6 C 97 % 15 lf 1012,7 hPa 0,0 l/m 0 min 0 min 11 W/m 15,8 km/h (3 Bft) 93,48 %
21.01.2018 08:42 0,6 C 0,6 C -0,6 C 97 % 15 lf 1012,7 hPa 0,0 l/m 0 min 0 min 12 W/m 15,8 km/h (3 Bft) 91,49 %
21.01.2018 08:44 0,6 C 0,6 C -0,6 C 97 % 15 lf 1012,8 hPa 0,0 l/m 0 min 0 min 15 W/m 11,3 km/h (2 Bft) 95,74 %
21.01.2018 08:46 0,6 C 0,6 C -0,6 C 97 % 15 lf 1012,8 hPa 0,0 l/m 0 min 0 min 17 W/m 15,8 km/h (3 Bft) 95,74 %
21.01.2018 08:48 0,6 C 0,6 C -0,6 C 97 % 15 lf 1012,9 hPa 0,0 l/m 0 min 0 min 15 W/m 20,3 km/h (4 Bft) 93,62 %
21.01.2018 08:50 0,6 C 0,6 C -0,6 C 97 % 15 lf 1012,8 hPa 0,0 l/m 0 min 0 min 14 W/m 13,5 km/h (3 Bft) 95,65 %
21.01.2018 08:52 0,7 C 0,6 C -0,6 C 97 % 15 lf 1012,9 hPa 0,0 l/m 0 min 0 min 16 W/m 11,3 km/h (2 Bft) 95,74 %
21.01.2018 08:54 0,7 C 0,6 C -1,1 C 97 % 15 lf 1012,9 hPa 0,0 l/m 0 min 0 min 16 W/m 15,8 km/h (3 Bft) 91,49 %
21.01.2018 08:56 0,7 C 0,6 C -0,6 C 97 % 15 lf 1012,9 hPa 0,0 l/m 0 min 0 min 17 W/m 22,5 km/h (4 Bft) 93,62 %
21.01.2018 08:58 0,7 C 0,6 C -0,6 C 97 % 15 lf 1013,0 hPa 0,0 l/m 0 min 0 min 19 W/m 15,8 km/h (3 Bft) 93,62 %
21.01.2018 09:00 0,7 C 0,6 C -0,6 C 97 % 15 lf 1012,9 hPa 0,0 l/m 0 min 0 min 25 W/m 13,5 km/h (3 Bft) 93,62 %
21.01.2018 09:02 0,7 C 0,6 C -0,6 C 97 % 15 lf 1013,1 hPa 0,0 l/m 0 min 0 min 34 W/m 13,5 km/h (3 Bft) 97,83 %
21.01.2018 09:04 0,7 C 0,6 C -0,6 C 97 % 15 lf 1013,1 hPa 0,0 l/m 0 min 0 min 38 W/m 13,5 km/h (3 Bft) 95,74 %
21.01.2018 09:06 0,7 C 0,6 C -0,6 C 97 % 15 lf 1013,3 hPa 0,0 l/m 2 min 0 min 55 W/m 13,5 km/h (3 Bft) 97,87 %
21.01.2018 09:08 0,7 C 0,6 C -0,6 C 97 % 15 lf 1013,2 hPa 0,0 l/m 2 min 0 min 63 W/m 15,8 km/h (3 Bft) 97,87 %
21.01.2018 09:10 0,7 C 1,1 C -0,6 C 98 % 15 lf 1013,3 hPa 0,0 l/m 2 min 0 min 66 W/m 13,5 km/h (3 Bft) 97,87 %
21.01.2018 09:12 0,7 C 1,1 C 0,0 C 98 % 15 lf 1013,3 hPa 0,0 l/m 2 min 0 min 68 W/m 18,0 km/h (3 Bft) 93,62 %
21.01.2018 09:14 0,8 C 1,1 C 0,0 C 98 % 15 lf 1013,4 hPa 0,0 l/m 2 min 0 min 57 W/m 11,3 km/h (2 Bft) 95,65 %
21.01.2018 09:16 0,8 C 1,1 C -0,6 C 98 % 15 lf 1013,4 hPa 0,0 l/m 0 min 0 min 39 W/m 9,0 km/h (2 Bft) 97,87 %
21.01.2018 09:18 0,8 C 1,1 C -0,6 C 98 % 15 lf 1013,4 hPa 0,0 l/m 0 min 0 min 50 W/m 11,3 km/h (2 Bft) 97,87 %
21.01.2018 09:20 0,8 C 1,1 C 0,0 C 98 % 15 lf 1013,5 hPa 0,0 l/m 0 min 0 min 57 W/m 13,5 km/h (3 Bft) 95,74 %
21.01.2018 09:22 0,9 C 1,1 C 0,0 C 98 % 15 lf 1013,5 hPa 0,0 l/m 0 min 0 min 55 W/m 15,8 km/h (3 Bft) 97,87 %
21.01.2018 09:24 0,9 C 1,1 C 0,0 C 98 % 15 lf 1013,5 hPa 0,0 l/m 0 min 0 min 49 W/m 13,5 km/h (3 Bft) 97,87 %
21.01.2018 09:26 0,9 C 1,1 C 0,0 C 98 % 15 lf 1013,5 hPa 0,0 l/m 0 min 0 min 44 W/m 11,3 km/h (2 Bft) 97,83 %
21.01.2018 09:28 0,9 C 1,1 C 0,0 C 98 % 15 lf 1013,6 hPa 0,0 l/m 0 min 0 min 43 W/m 11,3 km/h (2 Bft) 97,87 %
21.01.2018 09:30 0,9 C 1,1 C 0,0 C 98 % 15 lf 1013,6 hPa 0,0 l/m 0 min 0 min 47 W/m 13,5 km/h (3 Bft) 95,74 %
21.01.2018 09:32 0,9 C 1,1 C 0,0 C 98 % 15 lf 1013,6 hPa 0,0 l/m 0 min 0 min 49 W/m 11,3 km/h (2 Bft) 97,87 %
21.01.2018 09:34 1,0 C 1,1 C 0,0 C 98 % 15 lf 1013,6 hPa 0,0 l/m 0 min 0 min 57 W/m 11,3 km/h (2 Bft) 97,87 %
21.01.2018 09:36 1,0 C 1,1 C 0,6 C 98 % 15 lf 1013,6 hPa 0,0 l/m 0 min 0 min 60 W/m 13,5 km/h (3 Bft) 97,87 %
21.01.2018 09:38 1,1 C 1,7 C 0,6 C 98 % 15 lf 1013,6 hPa 0,0 l/m 0 min 0 min 52 W/m 9,0 km/h (2 Bft) 97,83 %
21.01.2018 09:40 1,1 C 1,1 C 0,6 C 98 % 15 lf 1013,6 hPa 0,0 l/m 0 min 0 min 40 W/m 13,5 km/h (3 Bft) 97,87 %
21.01.2018 09:42 1,1 C 1,1 C 0,0 C 98 % 15 lf 1013,6 hPa 0,0 l/m 0 min 0 min 30 W/m 9,0 km/h (2 Bft) 93,62 %
21.01.2018 09:44 1,1 C 1,1 C 0,0 C 98 % 15 lf 1013,7 hPa 0,0 l/m 0 min 0 min 28 W/m 6,8 km/h (2 Bft) 100,00 %
21.01.2018 09:46 1,1 C 1,1 C 0,0 C 98 % 15 lf 1013,7 hPa 0,0 l/m 0 min 0 min 33 W/m 11,3 km/h (2 Bft) 97,87 %
21.01.2018 09:48 1,1 C 1,1 C 0,0 C 98 % 15 lf 1013,7 hPa 0,0 l/m 0 min 0 min 35 W/m 9,0 km/h (2 Bft) 100,00 %
21.01.2018 09:50 1,1 C 1,1 C 0,0 C 98 % 15 lf 1013,7 hPa 0,0 l/m 0 min 0 min 36 W/m 15,8 km/h (3 Bft) 100,00 %
21.01.2018 09:52 1,1 C 1,1 C 0,0 C 98 % 15 lf 1013,7 hPa 0,0 l/m 0 min 0 min 42 W/m 11,3 km/h (2 Bft) 100,00 %
21.01.2018 09:54 1,1 C 1,1 C 0,0 C 98 % 15 lf 1013,8 hPa 0,0 l/m 0 min 0 min 84 W/m 9,0 km/h (2 Bft) 100,00 %
21.01.2018 09:56 1,1 C 1,1 C 0,0 C 98 % 15 lf 1013,8 hPa 0,0 l/m 2 min 0 min 140 W/m 9,0 km/h (2 Bft) 100,00 %
21.01.2018 09:58 1,1 C 1,1 C 0,0 C 98 % 15 lf 1013,8 hPa 0,0 l/m 2 min 0 min 135 W/m 13,5 km/h (3 Bft) 95,74 %
21.01.2018 10:00 1,1 C 1,7 C 0,0 C 98 % 15 lf 1013,9 hPa 0,0 l/m 0 min 0 min 86 W/m 15,8 km/h (3 Bft) 95,74 %
21.01.2018 10:02 1,1 C 1,7 C 0,0 C 98 % 15 lf 1013,9 hPa 0,0 l/m 0 min 0 min 87 W/m 11,3 km/h (2 Bft) 97,83 %
21.01.2018 10:04 1,2 C 1,7 C 0,0 C 98 % 15 lf 1013,9 hPa 0,0 l/m 0 min 0 min 69 W/m 11,3 km/h (2 Bft) 97,87 %
21.01.2018 10:06 1,2 C 1,7 C 0,0 C 98 % 15 lf 1013,9 hPa 0,0 l/m 0 min 0 min 63 W/m 13,5 km/h (3 Bft) 100,00 %
21.01.2018 10:08 1,2 C 2,2 C 0,0 C 98 % 15 lf 1013,9 hPa 0,0 l/m 0 min 0 min 85 W/m 11,3 km/h (2 Bft) 100,00 %
21.01.2018 10:10 1,2 C 2,2 C 0,6 C 98 % 15 lf 1014,0 hPa 0,0 l/m 0 min 0 min 89 W/m 13,5 km/h (3 Bft) 100,00 %
21.01.2018 10:12 1,2 C 2,2 C 0,6 C 98 % 15 lf 1013,9 hPa 0,0 l/m 0 min 0 min 80 W/m 15,8 km/h (3 Bft) 100,00 %
21.01.2018 10:14 1,2 C 2,2 C 0,6 C 98 % 15 lf 1014,0 hPa 0,0 l/m 0 min 0 min 94 W/m 9,0 km/h (2 Bft) 97,87 %
21.01.2018 10:16 1,3 C 2,2 C 0,6 C 98 % 15 lf 1014,0 hPa 0,0 l/m 2 min 0 min 124 W/m 15,8 km/h (3 Bft) 100,00 %
21.01.2018 10:18 1,3 C 2,8 C 0,6 C 98 % 15 lf 1014,0 hPa 0,0 l/m 2 min 0 min 198 W/m 11,3 km/h (2 Bft) 97,87 %
21.01.2018 10:20 1,4 C 2,8 C 0,6 C 98 % 15 lf 1014,0 hPa 0,0 l/m 0 min 0 min 97 W/m 20,3 km/h (4 Bft) 97,87 %
21.01.2018 10:22 1,4 C 2,8 C 0,6 C 98 % 15 lf 1014,1 hPa 0,0 l/m 0 min 0 min 97 W/m 13,5 km/h (3 Bft) 97,83 %
21.01.2018 10:24 1,4 C 2,8 C 0,6 C 98 % 15 lf 1014,1 hPa 0,0 l/m 0 min 0 min 90 W/m 13,5 km/h (3 Bft) 97,87 %
21.01.2018 10:26 1,5 C 2,8 C 0,6 C 98 % 15 lf 1014,1 hPa 0,0 l/m 0 min 0 min 88 W/m 11,3 km/h (2 Bft) 95,74 %
21.01.2018 10:28 1,5 C 2,8 C 0,6 C 98 % 15 lf 1014,1 hPa 0,0 l/m 0 min 0 min 94 W/m 13,5 km/h (3 Bft) 97,87 %
21.01.2018 10:30 1,5 C 2,8 C 0,6 C 98 % 15 lf 1014,1 hPa 0,0 l/m 0 min 0 min 102 W/m 11,3 km/h (2 Bft) 97,87 %
21.01.2018 10:32 1,6 C 2,8 C 0,6 C 98 % 15 lf 1014,2 hPa 0,0 l/m 2 min 0 min 130 W/m 13,5 km/h (3 Bft) 97,87 %
21.01.2018 10:34 1,6 C 3,3 C 1,1 C 98 % 15 lf 1014,2 hPa 0,0 l/m 2 min 0 min 184 W/m 9,0 km/h (2 Bft) 97,83 %
21.01.2018 10:36 1,6 C 3,3 C 1,1 C 98 % 15 lf 1014,2 hPa 0,0 l/m 2 min 0 min 176 W/m 11,3 km/h (2 Bft) 93,62 %
21.01.2018 10:38 1,7 C 3,9 C 1,1 C 98 % 15 lf 1014,2 hPa 0,0 l/m 2 min 0 min 157 W/m 11,3 km/h (2 Bft) 97,87 %
21.01.2018 10:40 1,7 C 4,4 C 1,7 C 98 % 15 lf 1014,2 hPa 0,0 l/m 2 min 0 min 220 W/m 11,3 km/h (2 Bft) 97,87 %
21.01.2018 10:42 1,8 C 4,4 C 1,7 C 98 % 15 lf 1014,3 hPa 0,0 l/m 2 min 0 min 237 W/m 9,0 km/h (2 Bft) 95,74 %
21.01.2018 10:44 1,9 C 5,0 C 2,2 C 98 % 15 lf 1014,4 hPa 0,0 l/m 2 min 0 min 250 W/m 11,3 km/h (2 Bft) 97,87 %
21.01.2018 10:46 2,0 C 5,0 C 1,7 C 98 % 14 lf 1014,3 hPa 0,0 l/m 2 min 0 min 174 W/m 13,5 km/h (3 Bft) 97,83 %
21.01.2018 10:48 2,1 C 4,4 C 1,7 C 98 % 14 lf 1014,5 hPa 0,0 l/m 0 min 0 min 107 W/m 13,5 km/h (3 Bft) 97,87 %
21.01.2018 10:50 2,1 C 3,9 C 1,7 C 98 % 13 lf 1014,6 hPa 0,0 l/m 0 min 0 min 102 W/m 18,0 km/h (3 Bft) 95,74 %
21.01.2018 10:52 2,2 C 3,9 C 1,7 C 98 % 13 lf 1014,6 hPa 0,0 l/m 0 min 0 min 117 W/m 11,3 km/h (2 Bft) 95,74 %
21.01.2018 10:54 2,2 C 3,9 C 1,7 C 98 % 12 lf 1014,6 hPa 0,0 l/m 0 min 0 min 127 W/m 15,8 km/h (3 Bft) 97,87 %
21.01.2018 10:56 2,2 C 3,9 C 1,7 C 98 % 11 lf 1014,7 hPa 0,0 l/m 2 min 0 min 150 W/m 13,5 km/h (3 Bft) 100,00 %
21.01.2018 10:58 2,3 C 4,4 C 1,7 C 98 % 10 lf 1014,7 hPa 0,0 l/m 2 min 0 min 178 W/m 13,5 km/h (3 Bft) 97,83 %
21.01.2018 11:00 2,3 C 3,9 C 1,7 C 98 % 9 lf 1014,8 hPa 0,0 l/m 0 min 0 min 134 W/m 20,3 km/h (4 Bft) 97,87 %
21.01.2018 11:02 2,3 C 4,4 C 1,7 C 98 % 8 lf 1014,9 hPa 0,0 l/m 0 min 0 min 145 W/m 11,3 km/h (2 Bft) 91,49 %
21.01.2018 11:04 2,3 C 4,4 C 2,2 C 98 % 7 lf 1014,9 hPa 0,0 l/m 0 min 0 min 131 W/m 13,5 km/h (3 Bft) 97,87 %
21.01.2018 11:08 2,4 C 3,9 C 2,2 C 98 % 5 lf 1014,8 hPa 0,0 l/m 0 min 0 min 139 W/m 18,0 km/h (3 Bft) 95,79 %
21.01.2018 11:10 2,4 C 3,9 C 2,2 C 98 % 4 lf 1014,8 hPa 0,0 l/m 2 min 0 min 160 W/m 27,0 km/h (4 Bft) 91,30 %
21.01.2018 11:12 2,4 C 3,9 C 2,2 C 98 % 4 lf 1014,8 hPa 0,0 l/m 2 min 0 min 175 W/m 20,3 km/h (4 Bft) 95,74 %
21.01.2018 11:14 2,5 C 4,4 C 2,2 C 98 % 3 lf 1014,8 hPa 0,0 l/m 2 min 0 min 195 W/m 13,5 km/h (3 Bft) 95,74 %
21.01.2018 11:16 2,5 C 5,6 C 2,8 C 98 % 3 lf 1014,8 hPa 0,0 l/m 2 min 0 min 169 W/m 11,3 km/h (2 Bft) 95,74 %
21.01.2018 11:18 2,6 C 5,0 C 2,8 C 98 % 3 lf 1014,8 hPa 0,0 l/m 2 min 0 min 169 W/m 20,3 km/h (4 Bft) 95,74 %
21.01.2018 11:20 2,6 C 5,0 C 2,2 C 98 % 2 lf 1015,0 hPa 0,0 l/m 2 min 0 min 163 W/m 18,0 km/h (3 Bft) 95,74 %
21.01.2018 11:22 2,7 C 4,4 C 2,2 C 98 % 2 lf 1015,0 hPa 0,0 l/m 0 min 0 min 160 W/m 18,0 km/h (3 Bft) 95,65 %
21.01.2018 11:24 2,7 C 5,6 C 2,2 C 98 % 1 lf 1015,0 hPa 0,0 l/m 2 min 0 min 189 W/m 22,5 km/h (4 Bft) 93,62 %
21.01.2018 11:26 2,7 C 6,1 C 2,2 C 98 % 1 lf 1015,0 hPa 0,0 l/m 0 min 0 min 156 W/m 11,3 km/h (2 Bft) 93,62 %
21.01.2018 11:28 2,8 C 6,7 C 2,2 C 98 % 1 lf 1015,1 hPa 0,0 l/m 2 min 0 min 210 W/m 15,8 km/h (3 Bft) 91,49 %
21.01.2018 11:30 2,8 C 6,1 C 1,7 C 98 % 1 lf 1015,0 hPa 0,0 l/m 0 min 0 min 103 W/m 15,8 km/h (3 Bft) 95,74 %
21.01.2018 11:32 2,8 C 7,8 C 1,7 C 98 % 0 lf 1015,0 hPa 0,0 l/m 0 min 0 min 153 W/m 11,3 km/h (2 Bft) 95,65 %
21.01.2018 11:34 2,9 C 8,3 C 2,2 C 98 % 0 lf 1015,0 hPa 0,0 l/m 2 min 0 min 278 W/m 13,5 km/h (3 Bft) 95,74 %
21.01.2018 11:36 2,9 C 9,4 C 2,2 C 98 % 0 lf 1015,0 hPa 0,0 l/m 2 min 0 min 337 W/m 13,5 km/h (3 Bft) 93,62 %
21.01.2018 11:38 3,0 C 10,6 C 2,2 C 98 % 0 lf 1015,1 hPa 0,0 l/m 2 min 0 min 369 W/m 15,8 km/h (3 Bft) 95,74 %
21.01.2018 11:40 3,2 C 11,7 C 2,8 C 98 % 0 lf 1015,1 hPa 0,0 l/m 2 min 0 min 403 W/m 18,0 km/h (3 Bft) 95,74 %
21.01.2018 11:42 3,3 C 11,1 C 2,8 C 98 % 0 lf 1015,1 hPa 0,0 l/m 2 min 0 min 368 W/m 11,3 km/h (2 Bft) 97,87 %
21.01.2018 11:44 3,4 C 12,2 C 3,3 C 98 % 0 lf 1015,0 hPa 0,0 l/m 2 min 0 min 368 W/m 11,3 km/h (2 Bft) 97,83 %
21.01.2018 11:46 3,5 C 10,0 C 2,8 C 98 % 0 lf 1015,0 hPa 0,0 l/m 2 min 0 min 285 W/m 13,5 km/h (3 Bft) 93,62 %
21.01.2018 11:48 3,6 C 8,3 C 2,8 C 98 % 0 lf 1015,0 hPa 0,0 l/m 0 min 0 min 162 W/m 15,8 km/h (3 Bft) 95,74 %
21.01.2018 11:50 3,6 C 8,9 C 2,8 C 98 % 0 lf 1015,0 hPa 0,0 l/m 2 min 0 min 217 W/m 15,8 km/h (3 Bft) 95,74 %
21.01.2018 11:52 3,7 C 8,9 C 2,8 C 98 % 0 lf 1015,1 hPa 0,0 l/m 2 min 0 min 281 W/m 9,0 km/h (2 Bft) 97,87 %
21.01.2018 11:54 3,7 C 7,2 C 2,8 C 98 % 0 lf 1015,1 hPa 0,0 l/m 2 min 0 min 195 W/m 13,5 km/h (3 Bft) 97,87 %
21.01.2018 11:56 3,7 C 7,2 C 2,8 C 98 % 0 lf 1015,1 hPa 0,0 l/m 0 min 0 min 144 W/m 13,5 km/h (3 Bft) 97,83 %
21.01.2018 11:58 3,8 C 7,8 C 2,8 C 98 % 0 lf 1015,1 hPa 0,0 l/m 2 min 0 min 213 W/m 13,5 km/h (3 Bft) 97,87 %
21.01.2018 12:00 3,8 C 7,8 C 2,8 C 98 % 0 lf 1015,1 hPa 0,0 l/m 2 min 0 min 240 W/m 15,8 km/h (3 Bft) 91,49 %
21.01.2018 12:02 3,8 C 7,8 C 2,8 C 97 % 0 lf 1015,2 hPa 0,0 l/m 2 min 0 min 210 W/m 15,8 km/h (3 Bft) 97,87 %
21.01.2018 12:04 3,9 C 8,9 C 2,8 C 97 % 0 lf 1015,2 hPa 0,0 l/m 2 min 0 min 249 W/m 15,8 km/h (3 Bft) 97,87 %
21.01.2018 12:06 3,9 C 9,4 C 2,8 C 97 % 0 lf 1015,2 hPa 0,0 l/m 2 min 0 min 230 W/m 13,5 km/h (3 Bft) 95,92 %
21.01.2018 12:08 4,0 C 9,4 C 2,2 C 97 % 0 lf 1015,2 hPa 0,0 l/m 2 min 0 min 199 W/m 18,0 km/h (3 Bft) 100,00 %
21.01.2018 12:10 4,0 C 9,4 C 2,2 C 97 % 0 lf 1015,2 hPa 0,0 l/m 2 min 0 min 208 W/m 13,5 km/h (3 Bft) 97,87 %
21.01.2018 12:12 4,1 C 10,0 C 2,2 C 97 % 0 lf 1015,3 hPa 0,0 l/m 2 min 0 min 183 W/m 11,3 km/h (2 Bft) 95,74 %
21.01.2018 12:14 4,1 C 11,1 C 2,8 C 97 % 0 lf 1015,3 hPa 0,0 l/m 2 min 0 min 219 W/m 13,5 km/h (3 Bft) 97,87 %
21.01.2018 12:16 4,2 C 11,7 C 2,8 C 97 % 0 lf 1015,3 hPa 0,0 l/m 2 min 0 min 289 W/m 13,5 km/h (3 Bft) 97,87 %
21.01.2018 12:18 4,2 C 11,7 C 2,8 C 96 % 0 lf 1015,3 hPa 0,0 l/m 2 min 0 min 185 W/m 11,3 km/h (2 Bft) 91,49 %
21.01.2018 12:20 4,3 C 10,6 C 2,8 C 96 % 0 lf 1015,1 hPa 0,0 l/m 2 min 0 min 203 W/m 13,5 km/h (3 Bft) 95,65 %
21.01.2018 12:22 4,3 C 11,1 C 2,8 C 96 % 0 lf 1015,1 hPa 0,0 l/m 2 min 0 min 206 W/m 15,8 km/h (3 Bft) 97,87 %
21.01.2018 12:24 4,3 C 11,1 C 2,8 C 96 % 0 lf 1015,2 hPa 0,0 l/m 2 min 0 min 253 W/m 15,8 km/h (3 Bft) 95,74 %
21.01.2018 12:26 4,4 C 11,1 C 2,8 C 96 % 0 lf 1015,1 hPa 0,0 l/m 2 min 0 min 274 W/m 18,0 km/h (3 Bft) 97,87 %
21.01.2018 12:28 4,4 C 11,7 C 2,8 C 95 % 0 lf 1015,2 hPa 0,0 l/m 2 min 0 min 272 W/m 18,0 km/h (3 Bft) 97,87 %
21.01.2018 12:30 4,4 C 11,7 C 2,8 C 95 % 0 lf 1015,1 hPa 0,0 l/m 2 min 0 min 275 W/m 13,5 km/h (3 Bft) 95,65 %
21.01.2018 12:32 4,5 C 11,7 C 2,8 C 95 % 0 lf 1015,2 hPa 0,0 l/m 2 min 0 min 306 W/m 18,0 km/h (3 Bft) 95,74 %
21.01.2018 12:34 4,6 C 11,7 C 2,8 C 95 % 0 lf 1015,2 hPa 0,0 l/m 2 min 0 min 356 W/m 13,5 km/h (3 Bft) 97,87 %
21.01.2018 12:36 4,7 C 11,1 C 2,8 C 95 % 0 lf 1015,2 hPa 0,0 l/m 2 min 0 min 357 W/m 20,3 km/h (4 Bft) 97,87 %
21.01.2018 12:38 4,7 C 11,1 C 2,8 C 94 % 0 lf 1015,1 hPa 0,0 l/m 2 min 0 min 281 W/m 20,3 km/h (4 Bft) 97,87 %
21.01.2018 12:40 4,7 C 10,6 C 2,8 C 94 % 0 lf 1015,1 hPa 0,0 l/m 2 min 0 min 215 W/m 20,3 km/h (4 Bft) 97,87 %
21.01.2018 12:42 4,8 C 11,1 C 2,8 C 94 % 0 lf 1015,1 hPa 0,0 l/m 2 min 0 min 237 W/m 11,3 km/h (2 Bft) 97,83 %
21.01.2018 12:44 4,8 C 12,2 C 2,8 C 93 % 0 lf 1015,1 hPa 0,0 l/m 2 min 0 min 248 W/m 15,8 km/h (3 Bft) 97,87 %
21.01.2018 12:46 4,8 C 12,2 C 2,8 C 93 % 0 lf 1015,1 hPa 0,0 l/m 2 min 0 min 250 W/m 18,0 km/h (3 Bft) 97,87 %
21.01.2018 12:48 4,9 C 12,8 C 2,8 C 93 % 0 lf 1015,1 hPa 0,0 l/m 2 min 0 min 323 W/m 18,0 km/h (3 Bft) 95,74 %
21.01.2018 12:50 4,9 C 13,9 C 2,8 C 92 % 0 lf 1015,1 hPa 0,0 l/m 2 min 0 min 327 W/m 15,8 km/h (3 Bft) 95,74 %
21.01.2018 12:52 5,0 C 13,3 C 2,8 C 92 % 0 lf 1015,2 hPa 0,0 l/m 2 min 0 min 329 W/m 15,8 km/h (3 Bft) 93,62 %
21.01.2018 12:54 5,1 C 12,8 C 2,8 C 92 % 0 lf 1015,1 hPa 0,0 l/m 2 min 0 min 272 W/m 22,5 km/h (4 Bft) 93,48 %
21.01.2018 12:56 5,1 C 13,3 C 2,8 C 91 % 0 lf 1015,1 hPa 0,0 l/m 2 min 0 min 249 W/m 15,8 km/h (3 Bft) 93,62 %
21.01.2018 12:58 5,1 C 13,3 C 2,8 C 91 % 0 lf 1015,1 hPa 0,0 l/m 2 min 0 min 272 W/m 15,8 km/h (3 Bft) 97,87 %
21.01.2018 13:00 5,2 C 12,2 C 2,8 C 91 % 0 lf 1015,1 hPa 0,0 l/m 2 min 0 min 309 W/m 15,8 km/h (3 Bft) 95,74 %
21.01.2018 13:02 5,2 C 13,3 C 2,8 C 90 % 0 lf 1015,1 hPa 0,0 l/m 2 min 0 min 314 W/m 18,0 km/h (3 Bft) 93,62 %
21.01.2018 13:04 5,2 C 15,0 C 2,8 C 90 % 0 lf 1015,1 hPa 0,0 l/m 2 min 0 min 313 W/m 20,3 km/h (4 Bft) 95,74 %
21.01.2018 13:06 5,3 C 15,0 C 2,8 C 90 % 0 lf 1015,1 hPa 0,0 l/m 2 min 0 min 311 W/m 20,3 km/h (4 Bft) 95,65 %
21.01.2018 13:08 5,3 C 15,0 C 2,8 C 89 % 0 lf 1015,0 hPa 0,0 l/m 2 min 0 min 306 W/m 20,3 km/h (4 Bft) 95,74 %
21.01.2018 13:10 5,3 C 14,4 C 2,8 C 89 % 0 lf 1015,1 hPa 0,0 l/m 2 min 0 min 304 W/m 18,0 km/h (3 Bft) 95,74 %
21.01.2018 13:12 5,4 C 15,6 C 2,8 C 88 % 0 lf 1015,0 hPa 0,0 l/m 2 min 0 min 310 W/m 20,3 km/h (4 Bft) 93,62 %
21.01.2018 13:14 5,4 C 15,6 C 3,3 C 88 % 0 lf 1015,1 hPa 0,0 l/m 2 min 0 min 313 W/m 15,8 km/h (3 Bft) 95,74 %
21.01.2018 13:16 5,5 C 16,1 C 3,3 C 88 % 0 lf 1015,1 hPa 0,0 l/m 2 min 0 min 305 W/m 15,8 km/h (3 Bft) 95,74 %
21.01.2018 13:18 5,6 C 13,9 C 3,3 C 87 % 0 lf 1015,1 hPa 0,0 l/m 2 min 0 min 309 W/m 20,3 km/h (4 Bft) 93,62 %
21.01.2018 13:20 5,6 C 14,4 C 3,3 C 87 % 0 lf 1015,1 hPa 0,0 l/m 2 min 0 min 305 W/m 15,8 km/h (3 Bft) 95,65 %
21.01.2018 13:22 5,7 C 15,0 C 3,3 C 87 % 0 lf 1015,1 hPa 0,0 l/m 2 min 0 min 303 W/m 18,0 km/h (3 Bft) 95,74 %
21.01.2018 13:24 5,7 C 15,0 C 3,3 C 86 % 0 lf 1015,2 hPa 0,0 l/m 2 min 0 min 303 W/m 15,8 km/h (3 Bft) 93,62 %
21.01.2018 13:26 5,8 C 15,6 C 3,3 C 86 % 0 lf 1015,2 hPa 0,0 l/m 2 min 0 min 291 W/m 9,0 km/h (2 Bft) 95,74 %
21.01.2018 13:28 5,8 C 15,6 C 3,3 C 86 % 0 lf 1015,3 hPa 0,0 l/m 2 min 0 min 229 W/m 13,5 km/h (3 Bft) 93,62 %
21.01.2018 13:30 5,9 C 15,0 C 3,3 C 86 % 0 lf 1015,3 hPa 0,0 l/m 2 min 0 min 268 W/m 9,0 km/h (2 Bft) 93,48 %
21.01.2018 13:32 5,9 C 11,7 C 3,3 C 85 % 0 lf 1015,2 hPa 0,0 l/m 2 min 0 min 186 W/m 18,0 km/h (3 Bft) 91,49 %
21.01.2018 13:34 5,9 C 10,6 C 3,3 C 85 % 0 lf 1015,3 hPa 0,0 l/m 0 min 0 min 132 W/m 13,5 km/h (3 Bft) 91,49 %
21.01.2018 13:36 5,9 C 10,6 C 3,3 C 85 % 0 lf 1015,3 hPa 0,0 l/m 0 min 0 min 156 W/m 13,5 km/h (3 Bft) 91,49 %
21.01.2018 13:38 5,9 C 9,4 C 3,3 C 84 % 0 lf 1015,3 hPa 0,0 l/m 0 min 0 min 157 W/m 11,3 km/h (2 Bft) 95,74 %
21.01.2018 13:40 5,9 C 8,3 C 3,3 C 84 % 0 lf 1015,3 hPa 0,0 l/m 0 min 0 min 136 W/m 11,3 km/h (2 Bft) 95,74 %
21.01.2018 13:42 5,8 C 7,8 C 3,3 C 84 % 0 lf 1015,2 hPa 0,0 l/m 0 min 0 min 141 W/m 11,3 km/h (2 Bft) 86,96 %
21.01.2018 13:44 5,8 C 8,9 C 3,9 C 84 % 0 lf 1015,2 hPa 0,0 l/m 2 min 0 min 180 W/m 13,5 km/h (3 Bft) 91,49 %
21.01.2018 13:46 5,8 C 9,4 C 3,9 C 84 % 0 lf 1015,2 hPa 0,0 l/m 2 min 0 min 194 W/m 9,0 km/h (2 Bft) 93,62 %
21.01.2018 13:48 5,8 C 8,9 C 3,9 C 84 % 0 lf 1015,3 hPa 0,0 l/m 2 min 0 min 187 W/m 9,0 km/h (2 Bft) 95,74 %
21.01.2018 13:50 5,9 C 10,6 C 4,4 C 84 % 0 lf 1015,4 hPa 0,0 l/m 2 min 0 min 219 W/m 22,5 km/h (4 Bft) 95,74 %
21.01.2018 13:52 5,9 C 12,2 C 4,4 C 84 % 0 lf 1015,4 hPa 0,0 l/m 2 min 0 min 427 W/m 20,3 km/h (4 Bft) 95,65 %
21.01.2018 13:54 5,9 C 12,2 C 5,0 C 84 % 0 lf 1015,3 hPa 0,0 l/m 2 min 0 min 365 W/m 15,8 km/h (3 Bft) 91,49 %
21.01.2018 13:56 6,0 C 13,3 C 5,0 C 85 % 0 lf 1015,3 hPa 0,0 l/m 2 min 0 min 323 W/m 15,8 km/h (3 Bft) 93,62 %
21.01.2018 13:58 6,1 C 14,4 C 5,6 C 85 % 0 lf 1015,3 hPa 0,0 l/m 2 min 0 min 320 W/m 20,3 km/h (4 Bft) 91,49 %
21.01.2018 14:00 6,2 C 13,3 C 5,6 C 85 % 0 lf 1015,4 hPa 0,0 l/m 2 min 0 min 318 W/m 22,5 km/h (4 Bft) 89,36 %
21.01.2018 14:02 6,2 C 11,7 C 5,0 C 85 % 0 lf 1015,5 hPa 0,0 l/m 2 min 0 min 345 W/m 22,5 km/h (4 Bft) 89,36 %
21.01.2018 14:04 6,2 C 12,2 C 5,0 C 84 % 0 lf 1015,4 hPa 0,0 l/m 2 min 0 min 283 W/m 22,5 km/h (4 Bft) 91,30 %
21.01.2018 14:06 6,2 C 10,6 C 5,0 C 83 % 0 lf 1015,4 hPa 0,0 l/m 2 min 0 min 255 W/m 15,8 km/h (3 Bft) 95,74 %
21.01.2018 14:08 6,2 C 10,6 C 5,0 C 83 % 0 lf 1015,4 hPa 0,0 l/m 2 min 0 min 242 W/m 15,8 km/h (3 Bft) 95,74 %
21.01.2018 14:10 6,3 C 12,8 C 5,6 C 83 % 0 lf 1015,4 hPa 0,0 l/m 2 min 0 min 351 W/m 20,3 km/h (4 Bft) 91,49 %
21.01.2018 14:12 6,3 C 11,7 C 5,0 C 83 % 0 lf 1015,4 hPa 0,0 l/m 2 min 0 min 352 W/m 22,5 km/h (4 Bft) 93,62 %
21.01.2018 14:14 6,3 C 12,2 C 5,0 C 83 % 0 lf 1015,5 hPa 0,0 l/m 2 min 0 min 302 W/m 20,3 km/h (4 Bft) 95,74 %
21.01.2018 14:16 6,3 C 12,2 C 5,0 C 83 % 0 lf 1015,5 hPa 0,0 l/m 2 min 0 min 303 W/m 22,5 km/h (4 Bft) 95,65 %
21.01.2018 14:18 6,3 C 11,7 C 5,0 C 82 % 0 lf 1015,5 hPa 0,0 l/m 2 min 0 min 239 W/m 20,3 km/h (4 Bft) 95,74 %
21.01.2018 14:20 6,3 C 9,4 C 4,4 C 82 % 0 lf 1015,6 hPa 0,0 l/m 2 min 0 min 205 W/m 18,0 km/h (3 Bft) 95,74 %
21.01.2018 14:22 6,3 C 8,3 C 4,4 C 82 % 0 lf 1015,6 hPa 0,0 l/m 0 min 0 min 111 W/m 18,0 km/h (3 Bft) 93,62 %
21.01.2018 14:24 6,3 C 7,8 C 3,9 C 82 % 0 lf 1015,5 hPa 0,0 l/m 0 min 0 min 111 W/m 18,0 km/h (3 Bft) 93,62 %
21.01.2018 14:26 6,2 C 7,2 C 3,9 C 82 % 0 lf 1015,4 hPa 0,0 l/m 0 min 0 min 101 W/m 22,5 km/h (4 Bft) 95,74 %
21.01.2018 14:28 6,1 C 6,7 C 3,9 C 81 % 0 lf 1015,5 hPa 0,0 l/m 0 min 0 min 110 W/m 24,8 km/h (4 Bft) 95,65 %
21.01.2018 14:30 6,0 C 6,7 C 3,9 C 81 % 0 lf 1015,6 hPa 0,0 l/m 0 min 0 min 126 W/m 18,0 km/h (3 Bft) 93,62 %
21.01.2018 14:32 5,9 C 6,7 C 3,9 C 81 % 0 lf 1015,5 hPa 0,0 l/m 0 min 0 min 144 W/m 11,3 km/h (2 Bft) 97,87 %
21.01.2018 14:34 5,9 C 7,2 C 3,9 C 82 % 0 lf 1015,4 hPa 0,0 l/m 2 min 0 min 152 W/m 15,8 km/h (3 Bft) 89,36 %
21.01.2018 14:36 5,9 C 7,8 C 3,9 C 82 % 0 lf 1015,5 hPa 0,0 l/m 2 min 0 min 200 W/m 20,3 km/h (4 Bft) 95,74 %
21.01.2018 14:38 5,9 C 9,4 C 4,4 C 82 % 0 lf 1015,4 hPa 0,0 l/m 2 min 0 min 239 W/m 15,8 km/h (3 Bft) 95,74 %
21.01.2018 14:40 5,8 C 9,4 C 4,4 C 83 % 0 lf 1015,4 hPa 0,0 l/m 2 min 0 min 203 W/m 13,5 km/h (3 Bft) 95,65 %
21.01.2018 14:42 5,8 C 8,9 C 4,4 C 83 % 0 lf 1015,4 hPa 0,0 l/m 2 min 0 min 182 W/m 18,0 km/h (3 Bft) 95,74 %
21.01.2018 14:44 5,8 C 7,8 C 4,4 C 83 % 0 lf 1015,4 hPa 0,0 l/m 0 min 0 min 119 W/m 20,3 km/h (4 Bft) 95,74 %
21.01.2018 14:46 5,8 C 7,2 C 4,4 C 83 % 0 lf 1015,5 hPa 0,0 l/m 0 min 0 min 113 W/m 15,8 km/h (3 Bft) 93,62 %
21.01.2018 14:48 5,8 C 6,7 C 4,4 C 83 % 0 lf 1015,4 hPa 0,0 l/m 0 min 0 min 112 W/m 15,8 km/h (3 Bft) 97,87 %
21.01.2018 14:50 5,7 C 6,7 C 4,4 C 82 % 0 lf 1015,5 hPa 0,0 l/m 0 min 0 min 105 W/m 15,8 km/h (3 Bft) 95,74 %
21.01.2018 14:52 5,7 C 6,7 C 4,4 C 83 % 0 lf 1015,5 hPa 0,0 l/m 0 min 0 min 99 W/m 15,8 km/h (3 Bft) 97,83 %
21.01.2018 14:54 5,6 C 7,2 C 4,4 C 83 % 0 lf 1015,5 hPa 0,0 l/m 2 min 0 min 136 W/m 15,8 km/h (3 Bft) 97,87 %
21.01.2018 14:56 5,6 C 7,8 C 4,4 C 83 % 0 lf 1015,4 hPa 0,0 l/m 0 min 0 min 119 W/m 15,8 km/h (3 Bft) 100,00 %
21.01.2018 14:58 5,6 C 7,8 C 4,4 C 83 % 0 lf 1015,5 hPa 0,0 l/m 0 min 0 min 105 W/m 15,8 km/h (3 Bft) 100,00 %
21.01.2018 15:00 5,6 C 7,2 C 4,4 C 83 % 0 lf 1015,5 hPa 0,0 l/m 0 min 0 min 95 W/m 11,3 km/h (2 Bft) 97,87 %
21.01.2018 15:02 5,6 C 7,2 C 4,4 C 83 % 0 lf 1015,6 hPa 0,0 l/m 0 min 0 min 80 W/m 13,5 km/h (3 Bft) 100,00 %
21.01.2018 15:04 5,6 C 6,7 C 4,4 C 83 % 0 lf 1015,6 hPa 0,0 l/m 0 min 0 min 72 W/m 13,5 km/h (3 Bft) 100,00 %
21.01.2018 15:06 5,5 C 6,1 C 4,4 C 83 % 0 lf 1015,6 hPa 0,0 l/m 0 min 0 min 71 W/m 13,5 km/h (3 Bft) 97,92 %
21.01.2018 15:08 5,5 C 6,1 C 4,4 C 83 % 0 lf 1015,6 hPa 0,0 l/m 0 min 0 min 71 W/m 20,3 km/h (4 Bft) 93,62 %
21.01.2018 15:10 5,5 C 6,1 C 4,4 C 83 % 0 lf 1015,5 hPa 0,0 l/m 0 min 0 min 76 W/m 15,8 km/h (3 Bft) 95,74 %
21.01.2018 15:12 5,4 C 6,1 C 4,4 C 83 % 0 lf 1015,6 hPa 0,0 l/m 0 min 0 min 78 W/m 15,8 km/h (3 Bft) 95,74 %
21.01.2018 15:14 5,4 C 6,1 C 4,4 C 83 % 0 lf 1015,6 hPa 0,0 l/m 0 min 0 min 79 W/m 18,0 km/h (3 Bft) 97,83 %
21.01.2018 15:16 5,4 C 6,1 C 4,4 C 83 % 0 lf 1015,7 hPa 0,0 l/m 0 min 0 min 79 W/m 18,0 km/h (3 Bft) 97,87 %
21.01.2018 15:18 5,4 C 5,6 C 4,4 C 83 % 0 lf 1015,7 hPa 0,0 l/m 0 min 0 min 79 W/m 20,3 km/h (4 Bft) 97,87 %
21.01.2018 15:20 5,3 C 5,6 C 3,9 C 83 % 0 lf 1015,7 hPa 0,0 l/m 0 min 0 min 79 W/m 22,5 km/h (4 Bft) 97,87 %
21.01.2018 15:22 5,3 C 5,6 C 3,9 C 83 % 0 lf 1015,7 hPa 0,0 l/m 0 min 0 min 79 W/m 11,3 km/h (2 Bft) 93,62 %
21.01.2018 15:24 5,3 C 5,6 C 3,9 C 83 % 0 lf 1015,7 hPa 0,0 l/m 0 min 0 min 80 W/m 15,8 km/h (3 Bft) 95,65 %
21.01.2018 15:26 5,3 C 5,6 C 3,9 C 84 % 0 lf 1015,6 hPa 0,0 l/m 0 min 0 min 81 W/m 13,5 km/h (3 Bft) 93,62 %
21.01.2018 15:28 5,2 C 5,6 C 3,9 C 84 % 0 lf 1015,6 hPa 0,0 l/m 0 min 0 min 79 W/m 11,3 km/h (2 Bft) 97,87 %
21.01.2018 15:30 5,2 C 5,6 C 3,9 C 84 % 0 lf 1015,6 hPa 0,0 l/m 0 min 0 min 77 W/m 11,3 km/h (2 Bft) 95,74 %
21.01.2018 15:32 5,2 C 5,6 C 3,9 C 84 % 0 lf 1015,6 hPa 0,0 l/m 0 min 0 min 76 W/m 15,8 km/h (3 Bft) 97,87 %
21.01.2018 15:34 5,2 C 5,6 C 3,9 C 84 % 0 lf 1015,6 hPa 0,0 l/m 0 min 0 min 74 W/m 9,0 km/h (2 Bft) 97,87 %
21.01.2018 15:36 5,2 C 5,6 C 3,9 C 84 % 0 lf 1015,5 hPa 0,0 l/m 0 min 0 min 73 W/m 11,3 km/h (2 Bft) 97,83 %
21.01.2018 15:38 5,1 C 5,6 C 3,9 C 84 % 0 lf 1015,6 hPa 0,0 l/m 0 min 0 min 70 W/m 11,3 km/h (2 Bft) 97,87 %
21.01.2018 15:40 5,1 C 5,6 C 3,9 C 84 % 0 lf 1015,7 hPa 0,0 l/m 0 min 0 min 68 W/m 11,3 km/h (2 Bft) 97,87 %
21.01.2018 15:42 5,1 C 5,6 C 3,9 C 84 % 0 lf 1015,8 hPa 0,0 l/m 0 min 0 min 66 W/m 11,3 km/h (2 Bft) 91,49 %
21.01.2018 15:44 5,1 C 5,0 C 3,9 C 85 % 0 lf 1015,7 hPa 0,0 l/m 0 min 0 min 63 W/m 11,3 km/h (2 Bft) 97,87 %
21.01.2018 15:46 5,1 C 5,0 C 3,9 C 85 % 0 lf 1015,7 hPa 0,0 l/m 0 min 0 min 61 W/m 9,0 km/h (2 Bft) 97,87 %
21.01.2018 15:48 5,1 C 5,0 C 3,9 C 85 % 0 lf 1015,7 hPa 0,0 l/m 0 min 0 min 59 W/m 9,0 km/h (2 Bft) 97,83 %
21.01.2018 15:50 5,1 C 5,0 C 3,9 C 85 % 0 lf 1015,8 hPa 0,0 l/m 0 min 0 min 55 W/m 11,3 km/h (2 Bft) 97,87 %
21.01.2018 15:52 5,0 C 5,0 C 3,9 C 85 % 0 lf 1015,7 hPa 0,0 l/m 0 min 0 min 54 W/m 9,0 km/h (2 Bft) 95,74 %
21.01.2018 15:54 5,0 C 5,0 C 3,9 C 85 % 0 lf 1015,7 hPa 0,0 l/m 0 min 0 min 52 W/m 9,0 km/h (2 Bft) 97,87 %
21.01.2018 15:56 5,0 C 5,0 C 3,9 C 85 % 0 lf 1015,7 hPa 0,0 l/m 0 min 0 min 49 W/m 6,8 km/h (2 Bft) 95,74 %
21.01.2018 15:58 5,0 C 5,0 C 3,9 C 85 % 0 lf 1015,7 hPa 0,0 l/m 0 min 0 min 47 W/m 6,8 km/h (2 Bft) 95,74 %
21.01.2018 16:00 4,9 C 5,0 C 3,3 C 85 % 0 lf 1015,8 hPa 0,0 l/m 0 min 0 min 44 W/m 6,8 km/h (2 Bft) 95,65 %
21.01.2018 16:02 4,9 C 5,0 C 3,3 C 85 % 0 lf 1015,8 hPa 0,0 l/m 0 min 0 min 43 W/m 6,8 km/h (2 Bft) 97,87 %
21.01.2018 16:04 4,9 C 5,0 C 3,3 C 85 % 0 lf 1015,8 hPa 0,0 l/m 0 min 0 min 41 W/m 6,8 km/h (2 Bft) 93,62 %
21.01.2018 16:06 4,9 C 5,0 C 3,3 C 85 % 0 lf 1015,7 hPa 0,0 l/m 0 min 0 min 39 W/m 9,0 km/h (2 Bft) 97,87 %
21.01.2018 16:08 4,9 C 5,0 C 3,3 C 85 % 0 lf 1015,8 hPa 0,0 l/m 0 min 0 min 38 W/m 9,0 km/h (2 Bft) 93,62 %
21.01.2018 16:10 4,9 C 5,0 C 3,3 C 85 % 0 lf 1015,8 hPa 0,0 l/m 0 min 0 min 37 W/m 6,8 km/h (2 Bft) 95,74 %
21.01.2018 16:12 4,9 C 4,4 C 3,3 C 85 % 0 lf 1015,9 hPa 0,0 l/m 0 min 0 min 35 W/m 11,3 km/h (2 Bft) 97,83 %
21.01.2018 16:14 4,8 C 4,4 C 3,3 C 86 % 0 lf 1015,9 hPa 0,0 l/m 0 min 0 min 34 W/m 9,0 km/h (2 Bft) 97,87 %
21.01.2018 16:16 4,8 C 4,4 C 3,3 C 86 % 0 lf 1015,8 hPa 0,0 l/m 0 min 0 min 33 W/m 6,8 km/h (2 Bft) 97,87 %
21.01.2018 16:18 4,8 C 4,4 C 3,3 C 86 % 0 lf 1015,8 hPa 0,0 l/m 0 min 0 min 32 W/m 6,8 km/h (2 Bft) 95,74 %
21.01.2018 16:20 4,8 C 4,4 C 3,3 C 86 % 0 lf 1015,7 hPa 0,0 l/m 0 min 0 min 30 W/m 6,8 km/h (2 Bft) 97,87 %
21.01.2018 16:22 4,8 C 4,4 C 3,3 C 86 % 0 lf 1015,6 hPa 0,0 l/m 0 min 0 min 27 W/m 9,0 km/h (2 Bft) 91,49 %
21.01.2018 16:24 4,8 C 4,4 C 3,3 C 86 % 0 lf 1015,5 hPa 0,0 l/m 0 min 0 min 25 W/m 11,3 km/h (2 Bft) 97,83 %
21.01.2018 16:26 4,7 C 4,4 C 3,3 C 86 % 0 lf 1015,6 hPa 0,0 l/m 0 min 0 min 23 W/m 9,0 km/h (2 Bft) 93,62 %
21.01.2018 16:28 4,7 C 4,4 C 3,3 C 86 % 0 lf 1015,5 hPa 0,0 l/m 0 min 0 min 22 W/m 4,5 km/h (1 Bft) 95,74 %
21.01.2018 16:30 4,7 C 4,4 C 2,8 C 86 % 0 lf 1015,5 hPa 0,0 l/m 0 min 0 min 21 W/m 4,5 km/h (1 Bft) 95,74 %
21.01.2018 16:32 4,7 C 4,4 C 2,8 C 86 % 0 lf 1015,6 hPa 0,0 l/m 0 min 0 min 19 W/m 6,8 km/h (2 Bft) 93,62 %
21.01.2018 16:34 4,7 C 4,4 C 2,8 C 86 % 0 lf 1015,6 hPa 0,0 l/m 0 min 0 min 18 W/m 9,0 km/h (2 Bft) 85,11 %
21.01.2018 16:36 4,7 C 4,4 C 2,8 C 86 % 0 lf 1015,5 hPa 0,0 l/m 0 min 0 min 18 W/m 6,8 km/h (2 Bft) 93,48 %
21.01.2018 16:38 4,7 C 4,4 C 2,8 C 86 % 0 lf 1015,5 hPa 0,0 l/m 0 min 0 min 17 W/m 4,5 km/h (1 Bft) 91,49 %
21.01.2018 16:40 4,6 C 4,4 C 2,8 C 86 % 0 lf 1015,5 hPa 0,0 l/m 0 min 0 min 16 W/m 6,8 km/h (2 Bft) 93,62 %
21.01.2018 16:42 4,6 C 4,4 C 2,8 C 86 % 0 lf 1015,5 hPa 0,0 l/m 0 min 0 min 16 W/m 9,0 km/h (2 Bft) 93,62 %
21.01.2018 16:44 4,6 C 3,9 C 2,8 C 86 % 0 lf 1015,4 hPa 0,0 l/m 0 min 0 min 14 W/m 11,3 km/h (2 Bft) 95,74 %
21.01.2018 16:46 4,6 C 3,9 C 2,8 C 86 % 0 lf 1015,4 hPa 0,0 l/m 0 min 0 min 12 W/m 13,5 km/h (3 Bft) 97,87 %
21.01.2018 16:48 4,6 C 3,9 C 2,8 C 86 % 0 lf 1015,5 hPa 0,0 l/m 0 min 0 min 11 W/m 11,3 km/h (2 Bft) 95,65 %
21.01.2018 16:50 4,5 C 3,9 C 2,8 C 86 % 0 lf 1015,5 hPa 0,0 l/m 0 min 0 min 10 W/m 13,5 km/h (3 Bft) 95,74 %
21.01.2018 16:52 4,5 C 3,9 C 2,8 C 86 % 0 lf 1015,4 hPa 0,0 l/m 0 min 0 min 9 W/m 11,3 km/h (2 Bft) 93,62 %
21.01.2018 16:54 4,4 C 3,9 C 2,8 C 86 % 0 lf 1015,4 hPa 0,0 l/m 0 min 0 min 8 W/m 11,3 km/h (2 Bft) 97,87 %
21.01.2018 16:56 4,4 C 3,9 C 2,8 C 86 % 0 lf 1015,3 hPa 0,0 l/m 0 min 0 min 7 W/m 13,5 km/h (3 Bft) 95,74 %
21.01.2018 16:58 4,4 C 3,9 C 2,8 C 86 % 0 lf 1015,4 hPa 0,0 l/m 0 min 0 min 5 W/m 11,3 km/h (2 Bft) 95,65 %
21.01.2018 17:00 4,4 C 3,9 C 2,8 C 86 % 0 lf 1015,3 hPa 0,0 l/m 0 min 0 min 5 W/m 9,0 km/h (2 Bft) 95,74 %
21.01.2018 17:02 4,3 C 3,9 C 2,2 C 87 % 0 lf 1015,4 hPa 0,0 l/m 0 min 0 min 1 W/m 6,8 km/h (2 Bft) 97,87 %
21.01.2018 17:04 4,3 C 3,9 C 2,2 C 87 % 0 lf 1015,3 hPa 0,0 l/m 0 min 0 min 0 W/m 11,3 km/h (2 Bft) 95,74 %
21.01.2018 17:06 4,3 C 3,9 C 2,2 C 87 % 0 lf 1015,3 hPa 0,0 l/m 0 min 0 min 0 W/m 9,0 km/h (2 Bft) 95,74 %
21.01.2018 17:08 4,3 C 3,9 C 2,2 C 87 % 0 lf 1015,2 hPa 0,0 l/m 0 min 0 min 0 W/m 15,8 km/h (3 Bft) 97,87 %
21.01.2018 17:10 4,2 C 3,9 C 2,2 C 87 % 0 lf 1015,3 hPa 0,0 l/m 0 min 0 min 0 W/m 13,5 km/h (3 Bft) 95,65 %
21.01.2018 17:12 4,2 C 3,9 C 2,2 C 87 % 0 lf 1015,2 hPa 0,0 l/m 0 min 0 min 0 W/m 11,3 km/h (2 Bft) 97,87 %
21.01.2018 17:14 4,2 C 3,9 C 2,2 C 87 % 0 lf 1015,1 hPa 0,0 l/m 0 min 0 min 0 W/m 15,8 km/h (3 Bft) 97,87 %
21.01.2018 17:16 4,2 C 3,9 C 2,2 C 87 % 0 lf 1015,2 hPa 0,0 l/m 0 min 0 min 0 W/m 6,8 km/h (2 Bft) 95,74 %
21.01.2018 17:18 4,2 C 3,9 C 2,2 C 87 % 0 lf 1015,1 hPa 0,0 l/m 0 min 0 min 0 W/m 9,0 km/h (2 Bft) 95,74 %
21.01.2018 17:20 4,2 C 3,9 C 2,2 C 87 % 0 lf 1015,1 hPa 0,0 l/m 0 min 0 min 0 W/m 9,0 km/h (2 Bft) 95,74 %
21.01.2018 17:22 4,1 C 3,9 C 2,2 C 87 % 0 lf 1015,1 hPa 0,0 l/m 0 min 0 min 0 W/m 6,8 km/h (2 Bft) 97,83 %
21.01.2018 17:24 4,1 C 3,3 C 2,2 C 87 % 0 lf 1015,1 hPa 0,0 l/m 0 min 0 min 0 W/m 15,8 km/h (3 Bft) 95,74 %
21.01.2018 17:26 4,1 C 3,3 C 2,2 C 87 % 0 lf 1015,1 hPa 0,0 l/m 0 min 0 min 0 W/m 11,3 km/h (2 Bft) 97,87 %
21.01.2018 17:28 4,1 C 3,3 C 2,2 C 87 % 0 lf 1015,0 hPa 0,0 l/m 0 min 0 min 0 W/m 9,0 km/h (2 Bft) 95,74 %
21.01.2018 17:30 4,1 C 3,3 C 2,2 C 87 % 0 lf 1015,0 hPa 0,0 l/m 0 min 0 min 0 W/m 13,5 km/h (3 Bft) 97,87 %
21.01.2018 17:32 4,0 C 3,3 C 2,2 C 87 % 0 lf 1014,9 hPa 0,0 l/m 0 min 0 min 0 W/m 6,8 km/h (2 Bft) 97,87 %
21.01.2018 17:34 4,0 C 3,3 C 2,2 C 87 % 0 lf 1014,9 hPa 0,0 l/m 0 min 0 min 0 W/m 11,3 km/h (2 Bft) 95,65 %
21.01.2018 17:36 3,9 C 3,3 C 2,2 C 87 % 0 lf 1014,8 hPa 0,0 l/m 0 min 0 min 0 W/m 13,5 km/h (3 Bft) 97,87 %
21.01.2018 17:38 3,9 C 3,3 C 2,2 C 88 % 0 lf 1014,8 hPa 0,0 l/m 0 min 0 min 0 W/m 11,3 km/h (2 Bft) 97,87 %
21.01.2018 17:40 3,9 C 3,3 C 2,2 C 88 % 0 lf 1014,9 hPa 0,0 l/m 0 min 0 min 0 W/m 11,3 km/h (2 Bft) 95,74 %
21.01.2018 17:42 3,9 C 3,3 C 1,7 C 88 % 0 lf 1014,9 hPa 0,0 l/m 0 min 0 min 0 W/m 9,0 km/h (2 Bft) 95,74 %
21.01.2018 17:44 3,9 C 3,3 C 1,7 C 88 % 0 lf 1014,9 hPa 0,0 l/m 0 min 0 min 0 W/m 9,0 km/h (2 Bft) 97,87 %
21.01.2018 17:46 3,9 C 3,3 C 1,7 C 88 % 0 lf 1014,8 hPa 0,0 l/m 0 min 0 min 0 W/m 13,5 km/h (3 Bft) 95,65 %
21.01.2018 17:48 3,9 C 3,3 C 1,7 C 88 % 0 lf 1014,9 hPa 0,0 l/m 0 min 0 min 0 W/m 15,8 km/h (3 Bft) 100,00 %
21.01.2018 17:50 3,8 C 3,3 C 1,7 C 88 % 0 lf 1014,9 hPa 0,0 l/m 0 min 0 min 0 W/m 11,3 km/h (2 Bft) 93,62 %
21.01.2018 17:52 3,8 C 3,3 C 1,7 C 88 % 0 lf 1014,9 hPa 0,0 l/m 0 min 0 min 0 W/m 9,0 km/h (2 Bft) 97,87 %
21.01.2018 17:54 3,8 C 3,3 C 1,7 C 88 % 0 lf 1014,9 hPa 0,0 l/m 0 min 0 min 0 W/m 9,0 km/h (2 Bft) 100,00 %
21.01.2018 17:56 3,8 C 3,3 C 1,7 C 88 % 0 lf 1014,9 hPa 0,0 l/m 0 min 0 min 0 W/m 11,3 km/h (2 Bft) 100,00 %
21.01.2018 17:58 3,7 C 3,3 C 1,7 C 88 % 0 lf 1014,9 hPa 0,0 l/m 0 min 0 min 0 W/m 18,0 km/h (3 Bft) 95,65 %
21.01.2018 18:00 3,7 C 3,3 C 1,7 C 88 % 0 lf 1014,9 hPa 0,0 l/m 0 min 0 min 0 W/m 11,3 km/h (2 Bft) 100,00 %
21.01.2018 18:02 3,7 C 3,3 C 1,7 C 88 % 0 lf 1014,9 hPa 0,0 l/m 0 min 0 min 0 W/m 13,5 km/h (3 Bft) 100,00 %
21.01.2018 18:04 3,7 C 3,3 C 1,7 C 88 % 0 lf 1014,9 hPa 0,0 l/m 0 min 0 min 0 W/m 9,0 km/h (2 Bft) 100,00 %
21.01.2018 18:06 3,7 C 3,3 C 1,7 C 88 % 0 lf 1014,9 hPa 0,0 l/m 0 min 0 min 0 W/m 11,3 km/h (2 Bft) 100,00 %
21.01.2018 18:08 3,6 C 3,3 C 1,1 C 88 % 0 lf 1014,9 hPa 0,0 l/m 0 min 0 min 0 W/m 9,0 km/h (2 Bft) 100,00 %
21.01.2018 18:10 3,6 C 3,3 C 1,1 C 88 % 0 lf 1014,8 hPa 0,0 l/m 0 min 0 min 0 W/m 9,0 km/h (2 Bft) 97,87 %
21.01.2018 18:12 3,6 C 3,3 C 1,7 C 88 % 0 lf 1014,7 hPa 0,0 l/m 0 min 0 min 0 W/m 9,0 km/h (2 Bft) 100,00 %
21.01.2018 18:14 3,6 C 3,3 C 1,7 C 88 % 0 lf 1014,8 hPa 0,0 l/m 0 min 0 min 0 W/m 11,3 km/h (2 Bft) 100,00 %
21.01.2018 18:16 3,5 C 3,3 C 1,7 C 88 % 0 lf 1014,7 hPa 0,0 l/m 0 min 0 min 0 W/m 9,0 km/h (2 Bft) 100,00 %
21.01.2018 18:18 3,5 C 2,8 C 1,7 C 88 % 0 lf 1014,7 hPa 0,0 l/m 0 min 0 min 0 W/m 9,0 km/h (2 Bft) 97,87 %
21.01.2018 18:20 3,5 C 3,3 C 1,1 C 88 % 0 lf 1014,7 hPa 0,0 l/m 0 min 0 min 0 W/m 11,3 km/h (2 Bft) 96,55 %
21.01.2018 18:22 3,5 C 2,8 C 1,7 C 88 % 0 lf 1014,6 hPa 0,0 l/m 0 min 0 min 0 W/m 9,0 km/h (2 Bft) 100,00 %
21.01.2018 18:24 3,4 C 2,8 C 1,1 C 88 % 0 lf 1014,6 hPa 0,0 l/m 0 min 0 min 0 W/m 6,8 km/h (2 Bft) 98,00 %
21.01.2018 18:26 3,4 C 2,8 C 1,1 C 88 % 0 lf 1014,7 hPa 0,0 l/m 0 min 0 min 0 W/m 6,8 km/h (2 Bft) 97,87 %
21.01.2018 18:28 3,4 C 2,8 C 1,1 C 88 % 0 lf 1014,6 hPa 0,0 l/m 0 min 0 min 0 W/m 9,0 km/h (2 Bft) 95,74 %
21.01.2018 18:30 3,4 C 2,8 C 1,1 C 88 % 0 lf 1014,6 hPa 0,0 l/m 0 min 0 min 0 W/m 15,8 km/h (3 Bft) 97,87 %
21.01.2018 18:32 3,4 C 2,8 C 1,1 C 88 % 0 lf 1014,6 hPa 0,0 l/m 0 min 0 min 0 W/m 13,5 km/h (3 Bft) 97,87 %
21.01.2018 18:34 3,3 C 3,3 C 1,1 C 88 % 0 lf 1014,6 hPa 0,0 l/m 0 min 0 min 0 W/m 15,8 km/h (3 Bft) 97,83 %
21.01.2018 18:36 3,3 C 3,3 C 1,7 C 88 % 0 lf 1014,5 hPa 0,0 l/m 0 min 0 min 0 W/m 9,0 km/h (2 Bft) 95,74 %
21.01.2018 18:38 3,3 C 3,3 C 1,7 C 88 % 0 lf 1014,4 hPa 0,0 l/m 0 min 0 min 0 W/m 9,0 km/h (2 Bft) 97,87 %
21.01.2018 18:40 3,3 C 3,3 C 1,7 C 88 % 0 lf 1014,4 hPa 0,0 l/m 0 min 0 min 0 W/m 11,3 km/h (2 Bft) 97,87 %
21.01.2018 18:42 3,3 C 2,8 C 1,7 C 88 % 0 lf 1014,4 hPa 0,0 l/m 0 min 0 min 0 W/m 9,0 km/h (2 Bft) 97,87 %
21.01.2018 18:44 3,3 C 3,3 C 1,7 C 88 % 0 lf 1014,4 hPa 0,0 l/m 0 min 0 min 0 W/m 9,0 km/h (2 Bft) 97,87 %
21.01.2018 18:46 3,3 C 2,8 C 1,7 C 88 % 0 lf 1014,3 hPa 0,0 l/m 0 min 0 min 0 W/m 9,0 km/h (2 Bft) 95,65 %
21.01.2018 18:48 3,3 C 2,8 C 1,1 C 89 % 0 lf 1014,3 hPa 0,0 l/m 0 min 0 min 0 W/m 9,0 km/h (2 Bft) 97,87 %
21.01.2018 18:50 3,2 C 2,8 C 1,1 C 89 % 0 lf 1014,4 hPa 0,0 l/m 0 min 0 min 0 W/m 9,0 km/h (2 Bft) 98,15 %
21.01.2018 18:52 3,2 C 2,8 C 1,1 C 88 % 0 lf 1014,4 hPa 0,0 l/m 0 min 0 min 0 W/m 11,3 km/h (2 Bft) 100,00 %
21.01.2018 18:54 3,2 C 2,8 C 1,1 C 88 % 0 lf 1014,4 hPa 0,0 l/m 0 min 0 min 0 W/m 9,0 km/h (2 Bft) 93,62 %
21.01.2018 18:56 3,2 C 2,8 C 1,1 C 88 % 0 lf 1014,4 hPa 0,0 l/m 0 min 0 min 0 W/m 9,0 km/h (2 Bft) 93,48 %
21.01.2018 18:58 3,2 C 2,8 C 1,1 C 88 % 0 lf 1014,4 hPa 0,0 l/m 0 min 0 min 0 W/m 11,3 km/h (2 Bft) 93,62 %
21.01.2018 19:00 3,1 C 2,8 C 1,1 C 88 % 0 lf 1014,5 hPa 0,0 l/m 0 min 0 min 0 W/m 9,0 km/h (2 Bft) 95,74 %
21.01.2018 19:02 3,1 C 2,8 C 1,1 C 89 % 0 lf 1014,5 hPa 0,0 l/m 0 min 0 min 0 W/m 9,0 km/h (2 Bft) 95,74 %
21.01.2018 19:04 3,1 C 2,8 C 0,6 C 89 % 0 lf 1014,5 hPa 0,0 l/m 0 min 0 min 0 W/m 9,0 km/h (2 Bft) 93,62 %
21.01.2018 19:06 3,1 C 2,2 C 0,6 C 89 % 0 lf 1014,5 hPa 0,0 l/m 0 min 0 min 0 W/m 11,3 km/h (2 Bft) 95,65 %
21.01.2018 19:08 3,1 C 2,8 C 0,6 C 89 % 0 lf 1014,5 hPa 0,0 l/m 0 min 0 min 0 W/m 11,3 km/h (2 Bft) 93,62 %
21.01.2018 19:10 3,0 C 2,8 C 1,1 C 89 % 0 lf 1014,5 hPa 0,0 l/m 0 min 0 min 0 W/m 9,0 km/h (2 Bft) 95,74 %
21.01.2018 19:12 3,0 C 2,8 C 1,1 C 89 % 0 lf 1014,4 hPa 0,0 l/m 0 min 0 min 0 W/m 11,3 km/h (2 Bft) 93,62 %
21.01.2018 19:14 3,0 C 2,8 C 1,1 C 89 % 0 lf 1014,4 hPa 0,0 l/m 0 min 0 min 0 W/m 11,3 km/h (2 Bft) 93,62 %
21.01.2018 19:16 2,9 C 2,2 C 1,1 C 89 % 0 lf 1014,4 hPa 0,0 l/m 0 min 0 min 0 W/m 9,0 km/h (2 Bft) 93,62 %
21.01.2018 19:18 2,9 C 2,2 C 1,1 C 89 % 0 lf 1014,2 hPa 0,0 l/m 0 min 0 min 0 W/m 15,8 km/h (3 Bft) 89,13 %
21.01.2018 19:20 2,9 C 2,2 C 1,1 C 89 % 0 lf 1014,1 hPa 0,0 l/m 0 min 0 min 0 W/m 6,8 km/h (2 Bft) 93,62 %
21.01.2018 19:22 2,9 C 2,2 C 1,1 C 89 % 0 lf 1014,1 hPa 0,0 l/m 0 min 0 min 0 W/m 9,0 km/h (2 Bft) 93,62 %
21.01.2018 19:24 2,9 C 2,2 C 1,1 C 89 % 0 lf 1014,2 hPa 0,0 l/m 0 min 0 min 0 W/m 11,3 km/h (2 Bft) 93,62 %
21.01.2018 19:26 2,8 C 2,8 C 1,1 C 89 % 0 lf 1014,2 hPa 0,0 l/m 0 min 0 min 0 W/m 9,0 km/h (2 Bft) 93,62 %
21.01.2018 19:28 2,8 C 2,8 C 1,1 C 89 % 0 lf 1014,2 hPa 0,0 l/m 0 min 0 min 0 W/m 6,8 km/h (2 Bft) 93,62 %
21.01.2018 19:30 2,8 C 2,2 C 1,1 C 89 % 0 lf 1014,2 hPa 0,0 l/m 0 min 0 min 0 W/m 9,0 km/h (2 Bft) 93,48 %
21.01.2018 19:32 2,8 C 2,2 C 1,1 C 89 % 0 lf 1014,2 hPa 0,0 l/m 0 min 0 min 0 W/m 11,3 km/h (2 Bft) 93,62 %
21.01.2018 19:34 2,8 C 2,2 C 1,1 C 89 % 0 lf 1014,2 hPa 0,0 l/m 0 min 0 min 0 W/m 9,0 km/h (2 Bft) 95,74 %
21.01.2018 19:36 2,8 C 2,2 C 1,1 C 89 % 0 lf 1014,2 hPa 0,0 l/m 0 min 0 min 0 W/m 9,0 km/h (2 Bft) 89,36 %
21.01.2018 19:38 2,7 C 2,2 C 1,1 C 89 % 0 lf 1014,1 hPa 0,0 l/m 0 min 0 min 0 W/m 9,0 km/h (2 Bft) 93,62 %
21.01.2018 19:40 2,7 C 2,2 C 1,1 C 89 % 0 lf 1014,1 hPa 0,0 l/m 0 min 0 min 0 W/m 9,0 km/h (2 Bft) 89,36 %
21.01.2018 19:42 2,7 C 2,2 C 1,1 C 89 % 0 lf 1014,0 hPa 0,0 l/m 0 min 0 min 0 W/m 15,8 km/h (3 Bft) 91,30 %
21.01.2018 19:44 2,7 C 2,2 C 1,1 C 89 % 0 lf 1014,0 hPa 0,0 l/m 0 min 0 min 0 W/m 15,8 km/h (3 Bft) 95,74 %
21.01.2018 19:46 2,7 C 2,2 C 1,1 C 89 % 0 lf 1014,0 hPa 0,0 l/m 0 min 0 min 0 W/m 11,3 km/h (2 Bft) 93,62 %
21.01.2018 19:48 2,7 C 2,2 C 1,1 C 89 % 0 lf 1014,0 hPa 0,0 l/m 0 min 0 min 0 W/m 11,3 km/h (2 Bft) 91,49 %
21.01.2018 19:50 2,6 C 2,2 C 1,1 C 90 % 0 lf 1013,9 hPa 0,0 l/m 0 min 0 min 0 W/m 13,5 km/h (3 Bft) 95,74 %
21.01.2018 19:52 2,6 C 2,2 C 1,1 C 90 % 0 lf 1013,8 hPa 0,0 l/m 0 min 0 min 0 W/m 11,3 km/h (2 Bft) 95,74 %
21.01.2018 19:54 2,6 C 2,2 C 1,1 C 90 % 0 lf 1013,8 hPa 0,0 l/m 0 min 0 min 0 W/m 11,3 km/h (2 Bft) 95,65 %
21.01.2018 19:56 2,6 C 2,2 C 1,1 C 90 % 0 lf 1013,8 hPa 0,0 l/m 0 min 0 min 0 W/m 11,3 km/h (2 Bft) 95,74 %
21.01.2018 19:58 2,5 C 2,2 C 1,1 C 90 % 0 lf 1013,8 hPa 0,0 l/m 0 min 0 min 0 W/m 11,3 km/h (2 Bft) 93,62 %
21.01.2018 20:00 2,5 C 2,2 C 1,1 C 90 % 0 lf 1013,8 hPa 0,0 l/m 0 min 0 min 0 W/m 9,0 km/h (2 Bft) 97,87 %
21.01.2018 20:02 2,5 C 2,2 C 1,1 C 90 % 0 lf 1013,9 hPa 0,0 l/m 0 min 0 min 0 W/m 9,0 km/h (2 Bft) 95,74 %
21.01.2018 20:04 2,5 C 2,2 C 1,1 C 90 % 0 lf 1013,9 hPa 0,0 l/m 0 min 0 min 0 W/m 11,3 km/h (2 Bft) 97,87 %
21.01.2018 20:06 2,5 C 2,2 C 1,1 C 90 % 0 lf 1013,9 hPa 0,0 l/m 0 min 0 min 0 W/m 13,5 km/h (3 Bft) 91,30 %
21.01.2018 20:08 2,4 C 2,2 C 1,1 C 90 % 0 lf 1013,9 hPa 0,0 l/m 0 min 0 min 0 W/m 13,5 km/h (3 Bft) 97,87 %
21.01.2018 20:10 2,4 C 2,2 C 1,1 C 90 % 0 lf 1013,9 hPa 0,0 l/m 0 min 0 min 0 W/m 11,3 km/h (2 Bft) 97,87 %
21.01.2018 20:12 2,4 C 2,2 C 1,1 C 90 % 0 lf 1013,8 hPa 0,0 l/m 0 min 0 min 0 W/m 11,3 km/h (2 Bft) 97,87 %
21.01.2018 20:14 2,4 C 2,2 C 1,1 C 90 % 0 lf 1013,7 hPa 0,0 l/m 0 min 0 min 0 W/m 11,3 km/h (2 Bft) 95,74 %
21.01.2018 20:16 2,4 C 2,2 C 1,1 C 90 % 0 lf 1013,6 hPa 0,0 l/m 0 min 0 min 0 W/m 9,0 km/h (2 Bft) 93,48 %
21.01.2018 20:18 2,4 C 2,2 C 1,1 C 90 % 0 lf 1013,5 hPa 0,0 l/m 0 min 0 min 0 W/m 11,3 km/h (2 Bft) 95,74 %
21.01.2018 20:20 2,4 C 2,2 C 1,1 C 90 % 0 lf 1013,6 hPa 0,0 l/m 0 min 0 min 0 W/m 9,0 km/h (2 Bft) 95,74 %
21.01.2018 20:22 2,4 C 2,2 C 1,1 C 90 % 0 lf 1013,5 hPa 0,0 l/m 0 min 0 min 0 W/m 11,3 km/h (2 Bft) 97,87 %
21.01.2018 20:24 2,4 C 2,2 C 1,1 C 90 % 0 lf 1013,6 hPa 0,0 l/m 0 min 0 min 0 W/m 9,0 km/h (2 Bft) 95,74 %
21.01.2018 20:26 2,4 C 2,2 C 1,1 C 90 % 0 lf 1013,5 hPa 0,0 l/m 0 min 0 min 0 W/m 9,0 km/h (2 Bft) 97,87 %
21.01.2018 20:28 2,4 C 2,2 C 1,1 C 90 % 0 lf 1013,4 hPa 0,0 l/m 0 min 0 min 0 W/m 11,3 km/h (2 Bft) 97,83 %
21.01.2018 20:30 2,4 C 2,2 C 1,1 C 90 % 0 lf 1013,4 hPa 0,0 l/m 0 min 0 min 0 W/m 11,3 km/h (2 Bft) 97,87 %
21.01.2018 20:32 2,4 C 2,2 C 1,1 C 90 % 0 lf 1013,5 hPa 0,0 l/m 0 min 0 min 0 W/m 11,3 km/h (2 Bft) 93,62 %
21.01.2018 20:34 2,4 C 2,2 C 1,1 C 90 % 0 lf 1013,4 hPa 0,0 l/m 0 min 0 min 0 W/m 11,3 km/h (2 Bft) 95,74 %
21.01.2018 20:36 2,4 C 2,2 C 1,1 C 90 % 0 lf 1013,3 hPa 0,0 l/m 0 min 0 min 0 W/m 11,3 km/h (2 Bft) 97,87 %
21.01.2018 20:38 2,3 C 2,2 C 1,1 C 90 % 0 lf 1013,2 hPa 0,0 l/m 0 min 0 min 0 W/m 13,5 km/h (3 Bft) 95,74 %
21.01.2018 20:40 2,3 C 2,2 C 1,1 C 90 % 0 lf 1013,1 hPa 0,0 l/m 0 min 0 min 0 W/m 11,3 km/h (2 Bft) 97,83 %
21.01.2018 20:42 2,3 C 2,2 C 1,1 C 90 % 0 lf 1013,2 hPa 0,0 l/m 0 min 0 min 0 W/m 13,5 km/h (3 Bft) 95,74 %
21.01.2018 20:44 2,3 C 2,2 C 1,1 C 90 % 0 lf 1013,2 hPa 0,0 l/m 0 min 0 min 0 W/m 11,3 km/h (2 Bft) 100,00 %
21.01.2018 20:46 2,3 C 2,2 C 1,1 C 90 % 0 lf 1013,1 hPa 0,0 l/m 0 min 0 min 0 W/m 13,5 km/h (3 Bft) 95,74 %
21.01.2018 20:48 2,3 C 2,2 C 1,1 C 90 % 0 lf 1013,0 hPa 0,0 l/m 0 min 0 min 0 W/m 13,5 km/h (3 Bft) 97,87 %
21.01.2018 20:50 2,3 C 2,2 C 1,1 C 90 % 0 lf 1012,8 hPa 0,0 l/m 0 min 0 min 0 W/m 18,0 km/h (3 Bft) 95,74 %
21.01.2018 20:52 2,3 C 2,2 C 1,1 C 90 % 0 lf 1012,8 hPa 0,0 l/m 0 min 0 min 0 W/m 9,0 km/h (2 Bft) 100,00 %
21.01.2018 20:54 2,3 C 2,2 C 1,1 C 90 % 0 lf 1012,8 hPa 0,0 l/m 0 min 0 min 0 W/m 9,0 km/h (2 Bft) 97,87 %
21.01.2018 20:56 2,3 C 2,2 C 1,1 C 90 % 0 lf 1012,9 hPa 0,0 l/m 0 min 0 min 0 W/m 13,5 km/h (3 Bft) 97,87 %
21.01.2018 20:58 2,3 C 2,2 C 1,1 C 90 % 0 lf 1012,7 hPa 0,0 l/m 0 min 0 min 0 W/m 11,3 km/h (2 Bft) 97,87 %
21.01.2018 21:00 2,3 C 2,2 C 1,1 C 90 % 0 lf 1012,7 hPa 0,0 l/m 0 min 0 min 0 W/m 11,3 km/h (2 Bft) 100,00 %
21.01.2018 21:02 2,3 C 2,2 C 1,1 C 90 % 0 lf 1012,7 hPa 0,0 l/m 0 min 0 min 0 W/m 18,0 km/h (3 Bft) 97,62 %
21.01.2018 21:04 2,3 C 2,2 C 1,1 C 90 % 0 lf 1012,6 hPa 0,0 l/m 0 min 0 min 0 W/m 13,5 km/h (3 Bft) 100,00 %
21.01.2018 21:06 2,4 C 2,8 C 1,1 C 90 % 0 lf 1012,6 hPa 0,0 l/m 0 min 0 min 0 W/m 13,5 km/h (3 Bft) 93,48 %
21.01.2018 21:08 2,4 C 2,8 C 1,1 C 90 % 0 lf 1012,5 hPa 0,0 l/m 0 min 0 min 0 W/m 13,5 km/h (3 Bft) 97,87 %
21.01.2018 21:10 2,4 C 2,8 C 1,1 C 90 % 0 lf 1012,6 hPa 0,0 l/m 0 min 0 min 0 W/m 20,3 km/h (4 Bft) 100,00 %
21.01.2018 21:12 2,4 C 2,8 C 1,1 C 90 % 0 lf 1012,6 hPa 0,0 l/m 0 min 0 min 0 W/m 11,3 km/h (2 Bft) 97,87 %
21.01.2018 21:14 2,4 C 2,8 C 1,1 C 90 % 0 lf 1012,6 hPa 0,0 l/m 0 min 0 min 0 W/m 13,5 km/h (3 Bft) 97,87 %
21.01.2018 21:16 2,4 C 2,8 C 1,7 C 90 % 0 lf 1012,5 hPa 0,0 l/m 0 min 0 min 0 W/m 15,8 km/h (3 Bft) 100,00 %
21.01.2018 21:18 2,4 C 2,8 C 1,7 C 90 % 0 lf 1012,4 hPa 0,0 l/m 0 min 0 min 0 W/m 13,5 km/h (3 Bft) 100,00 %
21.01.2018 21:20 2,4 C 2,8 C 1,1 C 90 % 0 lf 1012,5 hPa 0,0 l/m 0 min 0 min 0 W/m 9,0 km/h (2 Bft) 97,87 %
21.01.2018 21:22 2,4 C 2,8 C 1,7 C 90 % 0 lf 1012,4 hPa 0,0 l/m 0 min 0 min 0 W/m 11,3 km/h (2 Bft) 95,74 %
21.01.2018 21:24 2,4 C 2,8 C 1,7 C 90 % 0 lf 1012,4 hPa 0,0 l/m 0 min 0 min 0 W/m 13,5 km/h (3 Bft) 100,00 %
21.01.2018 21:26 2,4 C 2,8 C 1,1 C 90 % 0 lf 1012,4 hPa 0,0 l/m 0 min 0 min 0 W/m 15,8 km/h (3 Bft) 97,87 %
21.01.2018 21:28 2,4 C 2,8 C 1,1 C 90 % 0 lf 1012,4 hPa 0,0 l/m 0 min 0 min 0 W/m 11,3 km/h (2 Bft) 100,00 %
21.01.2018 21:30 2,5 C 2,8 C 1,1 C 90 % 0 lf 1012,4 hPa 0,0 l/m 0 min 0 min 0 W/m 11,3 km/h (2 Bft) 95,74 %
21.01.2018 21:32 2,5 C 2,8 C 1,1 C 90 % 0 lf 1012,4 hPa 0,0 l/m 0 min 0 min 0 W/m 13,5 km/h (3 Bft) 97,87 %
21.01.2018 21:34 2,5 C 2,8 C 1,1 C 90 % 0 lf 1012,4 hPa 0,0 l/m 0 min 0 min 0 W/m 13,5 km/h (3 Bft) 100,00 %
21.01.2018 21:36 2,5 C 2,8 C 1,1 C 90 % 0 lf 1012,3 hPa 0,0 l/m 0 min 0 min 0 W/m 15,8 km/h (3 Bft) 97,87 %
21.01.2018 21:38 2,5 C 2,8 C 1,1 C 90 % 0 lf 1012,3 hPa 0,0 l/m 0 min 0 min 0 W/m 9,0 km/h (2 Bft) 100,00 %
21.01.2018 21:40 2,5 C 2,8 C 1,1 C 90 % 0 lf 1012,3 hPa 0,0 l/m 0 min 0 min 0 W/m 13,5 km/h (3 Bft) 100,00 %
21.01.2018 21:42 2,5 C 2,8 C 1,1 C 90 % 0 lf 1012,3 hPa 0,0 l/m 0 min 0 min 0 W/m 11,3 km/h (2 Bft) 100,00 %
21.01.2018 21:44 2,5 C 2,8 C 1,1 C 90 % 0 lf 1012,3 hPa 0,0 l/m 0 min 0 min 0 W/m 15,8 km/h (3 Bft) 100,00 %
21.01.2018 21:46 2,5 C 2,8 C 1,1 C 90 % 0 lf 1012,3 hPa 0,0 l/m 0 min 0 min 0 W/m 15,8 km/h (3 Bft) 97,87 %
21.01.2018 21:48 2,5 C 2,8 C 1,1 C 90 % 0 lf 1012,3 hPa 0,0 l/m 0 min 0 min 0 W/m 13,5 km/h (3 Bft) 100,00 %
21.01.2018 21:50 2,6 C 2,8 C 1,1 C 90 % 0 lf 1012,3 hPa 0,0 l/m 0 min 0 min 0 W/m 15,8 km/h (3 Bft) 100,00 %
21.01.2018 21:52 2,5 C 2,8 C 1,1 C 90 % 0 lf 1012,2 hPa 0,0 l/m 0 min 0 min 0 W/m 11,3 km/h (2 Bft) 97,83 %
21.01.2018 21:54 2,5 C 2,8 C 1,1 C 90 % 0 lf 1012,2 hPa 0,0 l/m 0 min 0 min 0 W/m 11,3 km/h (2 Bft) 93,62 %
21.01.2018 21:56 2,5 C 2,8 C 1,1 C 90 % 0 lf 1012,1 hPa 0,0 l/m 0 min 0 min 0 W/m 9,0 km/h (2 Bft) 95,74 %
21.01.2018 21:58 2,5 C 2,8 C 1,1 C 90 % 0 lf 1012,1 hPa 0,0 l/m 0 min 0 min 0 W/m 13,5 km/h (3 Bft) 97,87 %
21.01.2018 22:00 2,5 C 2,8 C 1,1 C 90 % 0 lf 1012,1 hPa 0,0 l/m 0 min 0 min 0 W/m 15,8 km/h (3 Bft) 97,87 %
21.01.2018 22:02 2,5 C 2,2 C 1,1 C 90 % 0 lf 1012,1 hPa 0,0 l/m 0 min 0 min 0 W/m 15,8 km/h (3 Bft) 95,74 %
21.01.2018 22:04 2,5 C 2,2 C 1,1 C 90 % 0 lf 1012,0 hPa 0,0 l/m 0 min 0 min 0 W/m 11,3 km/h (2 Bft) 93,48 %
21.01.2018 22:06 2,5 C 2,2 C 1,1 C 90 % 0 lf 1012,1 hPa 0,0 l/m 0 min 0 min 0 W/m 9,0 km/h (2 Bft) 95,74 %
21.01.2018 22:08 2,5 C 2,2 C 1,1 C 90 % 0 lf 1012,0 hPa 0,0 l/m 0 min 0 min 0 W/m 18,0 km/h (3 Bft) 95,74 %
21.01.2018 22:10 2,5 C 2,2 C 1,1 C 90 % 0 lf 1012,0 hPa 0,0 l/m 0 min 0 min 0 W/m 15,8 km/h (3 Bft) 93,62 %
21.01.2018 22:12 2,5 C 2,2 C 1,1 C 90 % 0 lf 1011,9 hPa 0,0 l/m 0 min 0 min 0 W/m 13,5 km/h (3 Bft) 95,74 %
21.01.2018 22:14 2,5 C 2,2 C 1,1 C 90 % 0 lf 1011,8 hPa 0,0 l/m 0 min 0 min 0 W/m 13,5 km/h (3 Bft) 93,62 %
21.01.2018 22:16 2,5 C 2,2 C 1,1 C 90 % 0 lf 1011,8 hPa 0,0 l/m 0 min 0 min 0 W/m 13,5 km/h (3 Bft) 93,48 %
21.01.2018 22:18 2,5 C 2,2 C 1,1 C 90 % 0 lf 1011,8 hPa 0,0 l/m 0 min 0 min 0 W/m 13,5 km/h (3 Bft) 89,36 %
21.01.2018 22:20 2,5 C 2,2 C 1,1 C 90 % 0 lf 1011,7 hPa 0,0 l/m 0 min 0 min 0 W/m 15,8 km/h (3 Bft) 93,62 %
21.01.2018 22:22 2,5 C 2,2 C 1,1 C 90 % 0 lf 1011,7 hPa 0,0 l/m 0 min 0 min 0 W/m 18,0 km/h (3 Bft) 93,62 %
21.01.2018 22:24 2,5 C 2,2 C 1,1 C 90 % 0 lf 1011,6 hPa 0,0 l/m 0 min 0 min 0 W/m 18,0 km/h (3 Bft) 89,36 %
21.01.2018 22:26 2,5 C 2,2 C 1,1 C 90 % 0 lf 1011,6 hPa 0,0 l/m 0 min 0 min 0 W/m 13,5 km/h (3 Bft) 93,48 %
21.01.2018 22:28 2,5 C 2,2 C 1,1 C 90 % 0 lf 1011,5 hPa 0,0 l/m 0 min 0 min 0 W/m 11,3 km/h (2 Bft) 89,36 %
21.01.2018 22:30 2,5 C 2,2 C 1,1 C 90 % 0 lf 1011,4 hPa 0,0 l/m 0 min 0 min 0 W/m 18,0 km/h (3 Bft) 91,49 %
21.01.2018 22:32 2,4 C 2,2 C 1,1 C 90 % 0 lf 1011,5 hPa 0,0 l/m 0 min 0 min 0 W/m 20,3 km/h (4 Bft) 91,49 %
21.01.2018 22:34 2,4 C 2,2 C 1,1 C 90 % 0 lf 1011,5 hPa 0,0 l/m 0 min 0 min 0 W/m 24,8 km/h (4 Bft) 93,62 %
21.01.2018 22:36 2,5 C 2,2 C 1,1 C 90 % 0 lf 1011,5 hPa 0,0 l/m 0 min 0 min 0 W/m 20,3 km/h (4 Bft) 91,49 %
21.01.2018 22:38 2,4 C 2,2 C 1,1 C 90 % 0 lf 1011,4 hPa 0,0 l/m 0 min 0 min 0 W/m 22,5 km/h (4 Bft) 95,65 %
21.01.2018 22:40 2,4 C 2,2 C 1,1 C 90 % 0 lf 1011,4 hPa 0,0 l/m 0 min 0 min 0 W/m 15,8 km/h (3 Bft) 97,87 %
21.01.2018 22:42 2,4 C 2,2 C 1,1 C 90 % 0 lf 1011,2 hPa 0,0 l/m 0 min 0 min 0 W/m 20,3 km/h (4 Bft) 97,87 %
21.01.2018 22:44 2,4 C 2,2 C 1,1 C 90 % 0 lf 1011,2 hPa 0,0 l/m 0 min 0 min 0 W/m 15,8 km/h (3 Bft) 93,62 %
21.01.2018 22:46 2,4 C 2,2 C 1,1 C 90 % 0 lf 1011,0 hPa 0,0 l/m 0 min 0 min 0 W/m 15,8 km/h (3 Bft) 97,87 %
21.01.2018 22:48 2,4 C 2,8 C 1,1 C 90 % 0 lf 1011,0 hPa 0,0 l/m 0 min 0 min 0 W/m 27,0 km/h (4 Bft) 97,87 %
21.01.2018 22:50 2,4 C 2,8 C 1,1 C 90 % 0 lf 1010,9 hPa 0,0 l/m 0 min 0 min 0 W/m 20,3 km/h (4 Bft) 97,83 %
21.01.2018 22:52 2,4 C 2,8 C 1,1 C 90 % 0 lf 1010,9 hPa 0,0 l/m 0 min 0 min 0 W/m 20,3 km/h (4 Bft) 93,62 %
21.01.2018 22:54 2,4 C 2,8 C 1,7 C 90 % 0 lf 1010,9 hPa 0,0 l/m 0 min 0 min 0 W/m 13,5 km/h (3 Bft) 95,74 %
21.01.2018 22:56 2,4 C 2,8 C 1,7 C 90 % 0 lf 1010,9 hPa 0,0 l/m 0 min 0 min 0 W/m 15,8 km/h (3 Bft) 91,49 %
21.01.2018 22:58 2,4 C 2,2 C 1,1 C 90 % 1 lf 1010,9 hPa 0,0 l/m 0 min 2 min 0 W/m 20,3 km/h (4 Bft) 95,74 %
21.01.2018 23:00 2,4 C 2,2 C 1,1 C 90 % 0 lf 1010,8 hPa 0,0 l/m 0 min 2 min 0 W/m 27,0 km/h (4 Bft) 93,62 %
21.01.2018 23:02 2,4 C 2,2 C 1,1 C 90 % 0 lf 1010,8 hPa 0,0 l/m 0 min 2 min 0 W/m 20,3 km/h (4 Bft) 97,83 %
21.01.2018 23:04 2,5 C 2,2 C 1,1 C 90 % 1 lf 1010,8 hPa 0,0 l/m 0 min 2 min 0 W/m 18,0 km/h (3 Bft) 95,74 %
21.01.2018 23:06 2,5 C 2,2 C 1,1 C 90 % 0 lf 1010,8 hPa 0,0 l/m 0 min 2 min 0 W/m 24,8 km/h (4 Bft) 97,87 %
21.01.2018 23:08 2,5 C 2,2 C 1,1 C 90 % 0 lf 1010,7 hPa 0,0 l/m 0 min 2 min 0 W/m 18,0 km/h (3 Bft) 95,74 %
21.01.2018 23:10 2,5 C 2,2 C 1,1 C 90 % 0 lf 1010,7 hPa 0,0 l/m 0 min 2 min 0 W/m 31,5 km/h (5 Bft) 97,87 %
21.01.2018 23:12 2,5 C 2,2 C 1,1 C 90 % 0 lf 1010,7 hPa 0,0 l/m 0 min 2 min 0 W/m 31,5 km/h (5 Bft) 97,87 %
21.01.2018 23:14 2,5 C 2,2 C 1,1 C 90 % 0 lf 1010,7 hPa 0,0 l/m 0 min 2 min 0 W/m 22,5 km/h (4 Bft) 97,83 %
21.01.2018 23:16 2,5 C 2,2 C 1,1 C 90 % 1 lf 1010,7 hPa 0,0 l/m 0 min 2 min 0 W/m 24,8 km/h (4 Bft) 97,87 %
21.01.2018 23:18 2,5 C 1,7 C 1,1 C 90 % 2 lf 1010,7 hPa 0,0 l/m 0 min 2 min 0 W/m 27,0 km/h (4 Bft) 95,74 %
21.01.2018 23:20 2,5 C 1,7 C 1,1 C 90 % 1 lf 1010,7 hPa 0,0 l/m 0 min 2 min 0 W/m 24,8 km/h (4 Bft) 97,87 %
21.01.2018 23:22 2,5 C 1,7 C 0,6 C 90 % 2 lf 1010,7 hPa 0,0 l/m 0 min 2 min 0 W/m 20,3 km/h (4 Bft) 93,62 %
21.01.2018 23:24 2,5 C 1,7 C 0,6 C 90 % 2 lf 1010,6 hPa 0,0 l/m 0 min 2 min 0 W/m 20,3 km/h (4 Bft) 95,65 %
21.01.2018 23:26 2,5 C 1,7 C 0,6 C 90 % 2 lf 1010,6 hPa 0,0 l/m 0 min 2 min 0 W/m 24,8 km/h (4 Bft) 93,62 %
21.01.2018 23:28 2,5 C 1,7 C 0,6 C 90 % 2 lf 1010,6 hPa 0,2 l/m 0 min 2 min 0 W/m 20,3 km/h (4 Bft) 95,74 %
21.01.2018 23:30 2,5 C 1,7 C 0,6 C 91 % 1 lf 1010,6 hPa 0,0 l/m 0 min 2 min 0 W/m 20,3 km/h (4 Bft) 97,87 %
21.01.2018 23:32 2,5 C 1,7 C 0,6 C 91 % 2 lf 1010,4 hPa 0,0 l/m 0 min 2 min 0 W/m 22,5 km/h (4 Bft) 95,74 %
21.01.2018 23:34 2,4 C 1,7 C 0,6 C 91 % 4 lf 1010,3 hPa 0,0 l/m 0 min 2 min 0 W/m 24,8 km/h (4 Bft) 95,74 %
21.01.2018 23:36 2,4 C 1,7 C 0,6 C 91 % 4 lf 1010,2 hPa 0,0 l/m 0 min 2 min 0 W/m 27,0 km/h (4 Bft) 95,65 %
21.01.2018 23:38 2,4 C 1,7 C 0,6 C 91 % 4 lf 1010,1 hPa 0,0 l/m 0 min 2 min 0 W/m 27,0 km/h (4 Bft) 97,87 %
21.01.2018 23:40 2,4 C 1,7 C 0,6 C 91 % 4 lf 1010,1 hPa 0,0 l/m 0 min 2 min 0 W/m 18,0 km/h (3 Bft) 97,87 %
21.01.2018 23:42 2,4 C 1,7 C 0,6 C 91 % 4 lf 1010,0 hPa 0,0 l/m 0 min 2 min 0 W/m 18,0 km/h (3 Bft) 97,87 %
21.01.2018 23:44 2,4 C 1,7 C 0,6 C 91 % 4 lf 1010,0 hPa 0,0 l/m 0 min 2 min 0 W/m 20,3 km/h (4 Bft) 97,87 %
21.01.2018 23:46 2,3 C 1,7 C 0,6 C 92 % 4 lf 1010,0 hPa 0,0 l/m 0 min 2 min 0 W/m 20,3 km/h (4 Bft) 97,87 %
21.01.2018 23:48 2,3 C 1,7 C 0,6 C 92 % 4 lf 1009,9 hPa 0,0 l/m 0 min 2 min 0 W/m 18,0 km/h (3 Bft) 93,48 %
21.01.2018 23:50 2,3 C 1,7 C 0,6 C 92 % 4 lf 1009,8 hPa 0,0 l/m 0 min 2 min 0 W/m 18,0 km/h (3 Bft) 95,74 %
21.01.2018 23:52 2,3 C 1,7 C 0,6 C 92 % 4 lf 1009,8 hPa 0,2 l/m 0 min 2 min 0 W/m 22,5 km/h (4 Bft) 97,87 %
21.01.2018 23:54 2,3 C 1,7 C 0,6 C 92 % 4 lf 1009,7 hPa 0,0 l/m 0 min 2 min 0 W/m 22,5 km/h (4 Bft) 95,74 %
21.01.2018 23:56 2,3 C 1,7 C 0,6 C 92 % 4 lf 1009,7 hPa 0,0 l/m 0 min 2 min 0 W/m 20,3 km/h (4 Bft) 97,87 %
21.01.2018 23:58 2,2 C 1,7 C 0,6 C 92 % 4 lf 1009,6 hPa 0,0 l/m 0 min 2 min 0 W/m 27,0 km/h (4 Bft) 97,87 %
_ Min-Zeit 07:04 07:44 06:46 14:28 11:32 00:00 - - - - 16:28 00:12
Minimum _ 0,5 C -0,6 C -1,7 C 81 % 0 lf 1002,6 hPa - - - - 4,5 km/h (1 Bft) 82,98 %
_ Max-Zeit 14:10 13:16 13:58 02:34 00:00 16:12 01:48 09:06 00:00 13:52 23:10 00:22
Maximum _ 6,3 C 16,1 C 5,6 C 98 % 15 lf 1015,9 hPa 0,2 l/m 2 min 2 min 427 W/m 31,5 km/h
O-SO (5 Bft)
100,00 %
Durchschnitt _ 2,7 C 3,5 C 1,3 C 93 % 7 lf 1011,8 hPa #1,0 l/m #3:40 h #2:49 h 139 W/m 14,2 km/h (3 Bft) 96,29 %
© 2018 W. Hausmann